FW7316 Weather Reports


time (UTC)temp
C
wind
direction
speed
KPH
gust
KPH
rain 1hr
cm
rain 24hr
cm
rain mn
cm
humidity
%
barometer
mb
20260507182004 17 82 11.3 17.7 0.00 0.03 0.00 70 1012.1
20260507181800 17 65 11.3 17.7 0.00 0.03 0.00 69 1012.1
20260507181704 17 75 11.3 17.7 0.00 0.03 0.00 69 1012.1
20260507181559 17 72 16.1 16.1 0.00 0.03 0.00 69 1012.0
20260507181501 17 67 8.0 14.5 0.00 0.03 0.00 69 1012.0
20260507181403 17 74 11.3 14.5 0.00 0.03 0.00 68 1012.0
20260507181301 17 71 8.0 14.5 0.00 0.03 0.00 68 1012.0
20260507181200 17 76 6.4 14.5 0.00 0.03 0.00 68 1012.0
20260507181103 17 76 8.0 14.5 0.00 0.03 0.00 68 1011.9
20260507181002 17 87 9.7 14.5 0.00 0.03 0.00 68 1011.9
20260507180900 18 81 9.7 14.5 0.00 0.03 0.00 68 1011.9
20260507180700 18 96 9.7 14.5 0.00 0.03 0.00 68 1011.9
20260507180600 18 88 12.9 14.5 0.00 0.03 0.00 68 1011.8
20260507180400 18 68 12.9 14.5 0.00 0.03 0.00 67 1011.8
20260507180300 18 71 8.0 12.9 0.00 0.03 0.00 67 1011.8
20260507180204 18 69 4.8 12.9 0.00 0.03 0.00 67 1011.7
20260507180130 18 69 6.4 16.1 0.00 0.03 0.00 67 1011.7
20260507180005 18 59 6.4 16.1 0.00 0.03 0.00 66 1011.7
20260507175909 18 53 4.8 16.1 0.00 0.05 0.00 66 1011.8
20260507175803 18 50 8.0 16.1 0.00 0.05 0.00 66 1011.7
20260507175611 18 48 8.0 16.1 0.00 0.05 0.00 66 1011.7
20260507175500 18 74 11.3 16.1 0.00 0.05 0.00 65 1011.7
20260507175159 18 76 11.3 16.1 0.00 0.05 0.00 65 1011.7
20260507175100 18 63 14.5 16.1 0.00 0.05 0.00 65 1011.7
20260507175005 18 46 8.0 14.5 0.00 0.05 0.00 65 1011.7
20260507174801 18 80 11.3 16.1 0.00 0.05 0.00 65 1011.7
20260507174559 19 68 6.4 17.7 0.00 0.05 0.00 64 1011.6
20260507174403 19 63 11.3 17.7 0.00 0.05 0.00 64 1011.5
20260507174301 19 65 11.3 17.7 0.00 0.05 0.00 64 1011.6
20260507174200 19 73 11.3 17.7 0.00 0.05 0.00 63 1011.6
20260507174104 19 63 11.3 17.7 0.00 0.05 0.00 63 1011.6
20260507173900 19 67 11.3 17.7 0.00 0.05 0.00 63 1011.5
20260507173804 19 76 12.9 17.7 0.00 0.05 0.00 63 1011.5
20260507173602 19 77 12.9 17.7 0.00 0.05 0.00 62 1011.5
20260507173505 20 67 14.5 17.7 0.00 0.05 0.00 61 1011.5
20260507173401 20 69 11.3 17.7 0.00 0.05 0.00 61 1011.5
20260507173203 20 70 14.5 17.7 0.00 0.05 0.00 62 1011.5
20260507173100 20 78 11.3 17.7 0.00 0.05 0.00 61 1011.5
20260507172903 20 74 12.9 17.7 0.00 0.05 0.00 61 1011.5
20260507172800 20 59 11.3 17.7 0.00 0.05 0.00 61 1011.4
20260507172400 20 67 14.5 17.7 0.00 0.05 0.00 60 1011.5
20260507172201 20 47 9.7 17.7 0.00 0.05 0.00 60 1011.6
20260507172100 20 64 8.0 17.7 0.00 0.05 0.00 60 1011.6
20260507171903 20 70 12.9 17.7 0.00 0.05 0.00 60 1011.5
20260507171703 20 52 8.0 17.7 0.00 0.05 0.00 59 1011.5
20260507171600 20 82 16.1 17.7 0.00 0.05 0.00 59 1011.5
20260507171403 20 88 14.5 20.9 0.00 0.05 0.00 59 1011.5
20260507171301 20 76 14.5 20.9 0.00 0.05 0.00 58 1011.5
20260507171108 20 86 12.9 20.9 0.00 0.05 0.00 58 1011.5
20260507170600 20 88 14.5 20.9 0.00 0.05 0.00 58 1011.5
20260507170504 20 75 16.1 20.9 0.00 0.05 0.00 58 1011.5
20260507170359 20 76 20.9 22.5 0.00 0.05 0.00 58 1011.5
20260507170300 20 71 14.5 22.5 0.00 0.05 0.00 58 1011.5
20260507170203 20 74 12.9 22.5 0.00 0.05 0.00 59 1011.5
20260507170101 20 68 16.1 22.5 0.00 0.05 0.00 58 1011.6
20260507170009 20 61 12.9 22.5 0.00 0.05 0.00 57 1011.6
20260507165904 21 74 16.1 22.5 0.00 0.05 0.00 57 1011.5
20260507165605 21 75 16.1 22.5 0.00 0.05 0.00 58 1011.5
20260507165501 21 76 16.1 22.5 0.00 0.05 0.00 58 1011.5
20260507165306 21 71 17.7 19.3 0.00 0.05 0.00 58 1011.4
20260507165200 21 61 14.5 19.3 0.00 0.05 0.00 57 1011.5
20260507165100 21 49 9.7 19.3 0.00 0.05 0.00 57 1011.5
20260507165005 21 63 16.1 20.9 0.00 0.05 0.00 57 1011.5
20260507164704 21 65 12.9 20.9 0.00 0.05 0.00 57 1011.4
20260507164559 21 60 16.1 20.9 0.00 0.05 0.00 56 1011.4
20260507164300 21 69 14.5 20.9 0.00 0.05 0.00 55 1011.4
20260507164201 21 53 8.0 20.9 0.00 0.05 0.00 56 1011.3
20260507164103 21 71 12.9 20.9 0.00 0.05 0.00 56 1011.3
20260507164004 21 70 16.1 20.9 0.00 0.05 0.00 54 1011.3
20260507163700 21 77 19.3 20.9 0.00 0.05 0.00 56 1011.2
20260507163503 21 67 12.9 20.9 0.00 0.05 0.00 55 1011.2
20260507163400 21 81 11.3 20.9 0.00 0.05 0.00 55 1011.2
20260507163301 21 56 12.9 20.9 0.00 0.05 0.00 54 1011.2
20260507163203 21 87 12.9 20.9 0.00 0.05 0.00 55 1011.2
20260507163100 21 87 16.1 19.3 0.00 0.05 0.00 54 1011.2
20260507162902 21 72 12.9 19.3 0.00 0.05 0.00 54 1011.2
20260507162800 22 57 16.1 19.3 0.00 0.05 0.00 54 1011.2
20260507162701 22 61 14.5 19.3 0.00 0.05 0.00 54 1011.2
20260507162501 22 65 12.9 19.3 0.00 0.05 0.00 54 1011.2
20260507162400 22 85 14.5 19.3 0.00 0.05 0.00 54 1011.2
20260507162306 22 120 8.0 17.7 0.00 0.05 0.00 53 1011.2
20260507162201 22 100 16.1 19.3 0.00 0.05 0.00 54 1011.2
20260507162100 22 104 14.5 19.3 0.00 0.05 0.00 55 1011.2
20260507162006 22 80 8.0 19.3 0.00 0.05 0.00 54 1011.2
20260507161801 22 86 9.7 19.3 0.00 0.05 0.00 54 1011.2
20260507161703 22 116 8.0 19.3 0.00 0.05 0.00 54 1011.2
20260507161600 22 116 12.9 19.3 0.00 0.05 0.00 53 1011.2
20260507161501 22 119 12.9 19.3 0.00 0.05 0.00 52 1011.2
20260507161403 22 98 16.1 19.3 0.00 0.05 0.00 51 1011.2
20260507161300 22 112 17.7 19.3 0.00 0.05 0.00 52 1011.2
20260507161201 22 108 16.1 17.7 0.00 0.05 0.00 52 1011.2
20260507161103 22 121 11.3 17.7 0.00 0.05 0.00 51 1011.2
20260507161001 22 113 11.3 17.7 0.00 0.05 0.00 52 1011.2
20260507160900 22 105 4.8 17.7 0.00 0.05 0.00 53 1011.1
20260507160600 22 80 12.9 17.7 0.00 0.05 0.00 56 1011.2
20260507160503 22 88 16.1 17.7 0.00 0.05 0.00 55 1011.2
20260507160359 22 74 8.0 17.7 0.00 0.05 0.00 55 1011.2
20260507160203 22 130 8.0 17.7 0.00 0.05 0.00 54 1011.2
20260507160120 22 92 11.3 17.7 0.00 0.05 0.00 54 1011.2
20260507160004 22 90 11.3 17.7 0.00 0.05 0.00 54 1011.2
20260507155904 22 87 4.8 16.1 0.00 0.05 0.00 53 1011.2
20260507155800 22 115 11.3 17.7 0.00 0.05 0.00 54 1011.2
20260507155603 22 125 6.4 20.9 0.00 0.05 0.00 54 1011.2
20260507155501 22 131 12.9 20.9 0.00 0.05 0.00 56 1011.1
20260507155403 22 76 8.0 20.9 0.00 0.05 0.00 55 1011.1
20260507155306 22 72 11.3 20.9 0.00 0.05 0.00 54 1011.1
20260507155201 22 107 14.5 20.9 0.00 0.05 0.00 53 1011.1
20260507155100 22 136 12.9 20.9 0.00 0.05 0.00 53 1011.1
20260507155006 22 132 12.9 20.9 0.00 0.05 0.00 53 1011.1
20260507154900 22 101 11.3 20.9 0.00 0.05 0.00 53 1011.1
20260507154801 22 121 16.1 20.9 0.00 0.05 0.00 53 1011.2
20260507154704 22 108 16.1 19.3 0.00 0.05 0.00 52 1011.1
20260507154602 22 107 16.1 19.3 0.00 0.05 0.00 52 1011.2
20260507154502 22 89 11.3 19.3 0.00 0.05 0.00 53 1011.2
20260507154407 22 126 9.7 19.3 0.00 0.05 0.00 51 1011.2
20260507154315 22 103 14.5 19.3 0.00 0.05 0.00 53 1011.2
20260507154200 22 82 9.7 19.3 0.00 0.05 0.00 56 1011.2
20260507154103 22 84 12.9 19.3 0.00 0.05 0.00 54 1011.2
20260507154005 22 88 17.7 19.3 0.00 0.05 0.00 56 1011.2
20260507153900 22 74 12.9 22.5 0.00 0.05 0.00 54 1011.2
20260507153803 22 63 8.0 22.5 0.00 0.05 0.00 54 1011.2
20260507153702 22 78 12.9 22.5 0.00 0.05 0.00 54 1011.3
20260507153600 22 76 16.1 22.5 0.00 0.05 0.00 54 1011.2
20260507153504 22 72 17.7 22.5 0.00 0.05 0.00 53 1011.2
20260507153401 22 59 12.9 22.5 0.00 0.05 0.00 56 1011.2
20260507153303 22 71 19.3 22.5 0.00 0.05 0.00 55 1011.2
20260507153203 22 78 12.9 22.5 0.00 0.05 0.00 55 1011.3
20260507153103 22 139 8.0 22.5 0.00 0.05 0.00 54 1011.2
20260507153002 22 88 16.1 22.5 0.00 0.05 0.00 56 1011.2
20260507152903 22 93 20.9 20.9 0.00 0.05 0.00 57 1011.2
20260507152803 22 78 11.3 20.9 0.00 0.05 0.00 57 1011.2
20260507152701 22 94 12.9 20.9 0.00 0.05 0.00 57 1011.2
20260507152603 21 91 16.1 20.9 0.00 0.05 0.00 58 1011.3
20260507152501 21 93 14.5 20.9 0.00 0.05 0.00 57 1011.3
20260507152400 21 85 8.0 22.5 0.00 0.05 0.00 57 1011.3
20260507152306 21 84 12.9 22.5 0.00 0.05 0.00 56 1011.3
20260507152202 21 137 14.5 22.5 0.00 0.05 0.00 57 1011.3
20260507152100 21 109 6.4 22.5 0.00 0.05 0.00 56 1011.3
20260507152006 21 126 14.5 22.5 0.00 0.05 0.00 55 1011.3
20260507151903 21 128 12.9 19.3 0.00 0.05 0.00 55 1011.3
20260507151501 21 141 9.7 19.3 0.00 0.05 0.00 56 1011.4
20260507151408 21 140 12.9 19.3 0.00 0.05 0.00 57 1011.4
20260507151302 21 144 16.1 19.3 0.00 0.05 0.00 59 1011.3
20260507151204 21 109 8.0 20.9 0.00 0.05 0.00 58 1011.3
20260507151103 21 94 16.1 20.9 0.00 0.05 0.00 55 1011.3
20260507151005 21 130 12.9 22.5 0.00 0.05 0.00 56 1011.3
20260507150900 21 110 12.9 25.7 0.00 0.05 0.00 57 1011.4
20260507150803 21 123 16.1 25.7 0.00 0.05 0.00 58 1011.4
20260507150701 21 96 12.9 25.7 0.00 0.05 0.00 57 1011.4
20260507150506 21 78 12.9 25.7 0.00 0.05 0.00 58 1011.4
20260507150406 21 78 8.0 25.7 0.00 0.05 0.00 60 1011.4
20260507150313 20 101 20.9 25.7 0.00 0.05 0.00 59 1011.4
20260507150207 20 60 14.5 25.7 0.00 0.05 0.00 59 1011.4
20260507150104 20 46 9.7 25.7 0.00 0.05 0.00 60 1011.4
20260507150006 20 65 20.9 25.7 0.00 0.05 0.00 59 1011.5
20260507145700 20 84 17.7 24.1 0.00 0.15 0.00 59 1011.5
20260507145603 20 62 22.5 24.1 0.00 0.15 0.00 60 1011.5
20260507145502 20 91 12.9 22.5 0.00 0.15 0.00 60 1011.5
20260507145400 20 80 11.3 25.7 0.00 0.15 0.00 61 1011.5
20260507145306 20 90 12.9 25.7 0.00 0.15 0.00 61 1011.5
20260507145202 20 96 12.9 25.7 0.00 0.15 0.00 59 1011.5
20260507145101 20 78 14.5 25.7 0.00 0.15 0.00 60 1011.5
20260507145008 20 62 16.1 25.7 0.00 0.15 0.00 60 1011.5
20260507144903 20 52 12.9 25.7 0.00 0.15 0.00 59 1011.5
20260507144801 20 79 14.5 25.7 0.00 0.15 0.00 59 1011.5
20260507144703 20 71 12.9 25.7 0.00 0.15 0.00 58 1011.5
20260507144500 20 73 20.9 25.7 0.00 0.15 0.00 60 1011.5
20260507144403 20 66 17.7 25.7 0.00 0.15 0.00 60 1011.5
20260507144303 20 80 17.7 25.7 0.00 0.15 0.00 60 1011.5
20260507144004 20 86 25.7 25.7 0.00 0.15 0.00 61 1011.5
20260507143803 20 51 16.1 20.9 0.00 0.15 0.00 61 1011.5
20260507143702 20 61 11.3 22.5 0.00 0.15 0.00 61 1011.5
20260507143600 20 69 12.9 25.7 0.00 0.15 0.00 60 1011.5
20260507143505 20 72 19.3 25.7 0.00 0.15 0.00 60 1011.5
20260507143402 20 84 14.5 25.7 0.00 0.15 0.00 60 1011.4
20260507143300 20 85 17.7 25.7 0.00 0.15 0.00 60 1011.4
20260507143219 20 74 12.9 25.7 0.00 0.15 0.00 60 1011.4
20260507143102 20 63 20.9 25.7 0.00 0.15 0.00 60 1011.4
20260507143002 20 21 9.7 25.7 0.00 0.15 0.00 59 1011.4
20260507142903 20 36 14.5 25.7 0.00 0.15 0.00 59 1011.4
20260507142803 20 59 12.9 25.7 0.00 0.15 0.00 59 1011.5
20260507142701 20 71 22.5 25.7 0.00 0.15 0.00 60 1011.4
20260507142602 20 59 14.5 24.1 0.00 0.15 0.00 60 1011.4
20260507142400 20 49 11.3 24.1 0.00 0.15 0.00 60 1011.4
20260507142203 20 47 12.9 24.1 0.00 0.15 0.00 58 1011.4
20260507142100 20 78 12.9 24.1 0.00 0.15 0.00 60 1011.4
20260507142004 20 38 16.1 24.1 0.00 0.15 0.00 59 1011.4
20260507141903 20 43 11.3 24.1 0.00 0.15 0.00 58 1011.4
20260507141801 20 71 22.5 24.1 0.00 0.15 0.00 59 1011.4
20260507141703 20 70 17.7 22.5 0.00 0.15 0.00 58 1011.4
20260507141500 21 51 17.7 22.5 0.00 0.15 0.00 56 1011.4
20260507141403 21 38 11.3 22.5 0.00 0.15 0.00 56 1011.4
20260507141302 21 38 16.1 22.5 0.00 0.15 0.00 56 1011.4
20260507141102 21 45 9.7 22.5 0.00 0.15 0.00 58 1011.4
20260507141007 21 42 14.5 22.5 0.00 0.15 0.00 59 1011.4
20260507140901 21 60 17.7 22.5 0.00 0.15 0.00 59 1011.4
20260507140804 21 33 9.7 22.5 0.00 0.15 0.00 59 1011.4
20260507140703 20 53 14.5 22.5 0.00 0.15 0.00 57 1011.4
20260507140600 21 46 12.9 22.5 0.00 0.15 0.00 58 1011.4
20260507140403 21 42 17.7 22.5 0.00 0.15 0.00 59 1011.4
20260507140259 21 80 22.5 22.5 0.00 0.15 0.00 58 1011.5
20260507140117 21 70 17.7 22.5 0.00 0.15 0.00 58 1011.4
20260507140009 21 39 12.9 22.5 0.00 0.15 0.00 58 1011.4
20260507135800 21 53 14.5 22.5 0.00 0.15 0.00 57 1011.4
20260507135703 21 57 8.0 25.7 0.00 0.15 0.00 58 1011.4
20260507135603 21 18 11.3 25.7 0.00 0.15 0.00 58 1011.4
20260507135500 21 46 8.0 25.7 0.00 0.15 0.00 57 1011.4
20260507135402 21 42 11.3 25.7 0.00 0.15 0.00 55 1011.5
20260507135306 21 45 16.1 25.7 0.00 0.15 0.00 55 1011.5
20260507135159 22 55 20.9 25.7 0.00 0.15 0.00 56 1011.5
20260507135103 22 85 24.1 25.7 0.00 0.15 0.00 56 1011.5
20260507135006 22 46 19.3 25.7 0.00 0.15 0.00 54 1011.5
20260507134901 22 89 20.9 25.7 0.00 0.15 0.00 55 1011.4
20260507134703 22 74 17.7 25.7 0.00 0.15 0.00 54 1011.5
20260507134404 23 69 17.7 20.9 0.00 0.15 0.00 48 1011.5
20260507134300 23 74 12.9 16.1 0.00 0.15 0.00 47 1011.4
20260507134103 23 138 3.2 12.9 0.00 0.15 0.00 43 1011.5
20260507134017 23 181 8.0 12.9 0.00 0.15 0.00 44 1011.5
20260507133803 23 130 4.8 17.7 0.00 0.15 0.00 49 1011.5
20260507133603 23 140 4.8 17.7 0.00 0.15 0.00 48 1011.5
20260507133400 23 140 1.6 17.7 0.00 0.15 0.00 47 1011.5
20260507133203 23 158 6.4 17.7 0.00 0.15 0.00 46 1011.4
20260507133101 23 194 8.0 17.7 0.00 0.15 0.00 46 1011.4
20260507133006 23 171 4.8 17.7 0.00 0.15 0.00 47 1011.4
20260507132801 23 171 6.4 11.3 0.00 0.15 0.00 45 1011.4
20260507132702 23 161 3.2 11.3 0.00 0.15 0.00 45 1011.4
20260507132603 23 131 8.0 11.3 0.00 0.15 0.00 53 1011.4
20260507132404 23 79 9.7 12.9 0.00 0.15 0.00 45 1011.4
20260507132306 23 79 1.6 12.9 0.00 0.15 0.00 45 1011.4
20260507132200 23 69 3.2 12.9 0.00 0.15 0.00 45 1011.4
20260507132107 23 49 0.0 12.9 0.00 0.15 0.00 44 1011.4
20260507132009 23 49 1.6 12.9 0.00 0.15 0.00 51 1011.5
20260507131900 23 67 8.0 12.9 0.00 0.15 0.00 47 1011.5
20260507131802 23 82 9.7 14.5 0.00 0.15 0.00 45 1011.5
20260507131703 23 105 4.8 14.5 0.00 0.15 0.00 44 1011.5
20260507131600 23 225 6.4 14.5 0.00 0.15 0.00 47 1011.5
20260507131503 23 191 4.8 14.5 0.00 0.15 0.00 45 1011.5
20260507131403 23 130 6.4 14.5 0.00 0.15 0.00 48 1011.5
20260507131301 23 140 8.0 14.5 0.00 0.15 0.00 44 1011.5
20260507131202 23 144 6.4 14.5 0.00 0.15 0.00 47 1011.5
20260507131016 23 86 3.2 14.5 0.00 0.15 0.00 46 1011.5
20260507130903 23 60 6.4 14.5 0.00 0.15 0.00 50 1011.5
20260507130803 23 61 8.0 14.5 0.00 0.15 0.00 49 1011.5
20260507130700 23 83 11.3 11.3 0.00 0.15 0.00 49 1011.5
20260507130603 23 121 4.8 11.3 0.00 0.15 0.00 46 1011.5
20260507130400 22 165 3.2 8.0 0.00 0.15 0.00 47 1011.5
20260507130306 22 174 0.0 12.9 0.00 0.15 0.00 46 1011.5
20260507130202 22 174 1.6 12.9 0.00 0.15 0.00 46 1011.5
20260507130101 22 174 1.6 12.9 0.00 0.15 0.00 47 1011.6
20260507130007 22 167 1.6 12.9 0.00 0.15 0.00 48 1011.6
20260507125903 22 180 3.2 12.9 0.00 0.15 0.00 45 1011.6
20260507125802 22 180 3.2 12.9 0.00 0.15 0.00 45 1011.5
20260507125703 22 135 3.2 12.9 0.00 0.15 0.00 45 1011.5
20260507125501 23 128 1.6 12.9 0.00 0.15 0.00 48 1011.5
20260507125404 23 133 8.0 16.1 0.00 0.15 0.00 49 1011.5
20260507125307 23 134 9.7 17.7 0.00 0.15 0.00 46 1011.5
20260507125201 23 81 1.6 17.7 0.00 0.15 0.00 47 1011.5
20260507125103 23 133 3.2 17.7 0.00 0.15 0.00 43 1011.5
20260507125006 23 133 3.2 17.7 0.00 0.15 0.00 43 1011.5
20260507124900 23 133 3.2 17.7 0.00 0.15 0.00 46 1011.5
20260507124803 23 107 3.2 17.7 0.00 0.15 0.00 48 1011.5
20260507124703 23 99 4.8 17.7 0.00 0.15 0.00 48 1011.5
20260507124602 23 82 9.7 17.7 0.00 0.15 0.00 49 1011.5
20260507124505 23 61 11.3 17.7 0.00 0.15 0.00 49 1011.5
20260507124402 23 56 12.9 17.7 0.00 0.15 0.00 47 1011.5
20260507124301 23 63 8.0 14.5 0.00 0.15 0.00 45 1011.5
20260507124159 23 82 8.0 12.9 0.00 0.15 0.00 48 1011.6
20260507124004 23 106 3.2 12.9 0.00 0.15 0.00 50 1011.6
20260507123900 23 73 12.9 12.9 0.00 0.15 0.00 49 1011.5
20260507123806 23 114 6.4 11.3 0.00 0.15 0.00 50 1011.5
20260507123702 23 59 3.2 11.3 0.00 0.15 0.00 47 1011.6
20260507123505 23 175 3.2 12.9 0.00 0.15 0.00 46 1011.6
20260507123300 23 111 1.6 12.9 0.00 0.15 0.00 44 1011.6
20260507123002 23 140 4.8 12.9 0.00 0.15 0.00 50 1011.6
20260507122903 23 127 1.6 12.9 0.00 0.15 0.00 46 1011.7
20260507122802 23 127 6.4 12.9 0.00 0.15 0.00 45 1011.6
20260507122659 23 124 4.8 12.9 0.00 0.15 0.00 43 1011.7
20260507122606 23 175 6.4 12.9 0.00 0.15 0.00 43 1011.7
20260507122503 23 184 11.3 12.9 0.00 0.15 0.00 45 1011.6
20260507122359 23 168 3.2 9.7 0.00 0.15 0.00 43 1011.6
20260507122201 23 198 6.4 9.7 0.00 0.15 0.00 50 1011.6
20260507122004 23 276 3.2 9.7 0.00 0.15 0.00 47 1011.6
20260507121900 23 258 4.8 9.7 0.00 0.15 0.00 47 1011.6
20260507121800 23 310 3.2 9.7 0.00 0.15 0.00 50 1011.6
20260507121601 23 302 6.4 9.7 0.00 0.15 0.00 47 1011.6
20260507121501 23 287 8.0 9.7 0.00 0.15 0.00 47 1011.6
20260507121404 23 279 0.0 9.7 0.00 0.15 0.00 45 1011.6
20260507121300 23 279 4.8 9.7 0.00 0.15 0.00 46 1011.7
20260507121200 23 321 3.2 9.7 0.00 0.15 0.00 50 1011.7
20260507121102 23 299 3.2 11.3 0.00 0.15 0.00 49 1011.7
20260507121025 23 299 4.8 11.3 0.00 0.15 0.00 49 1011.7
20260507120900 23 251 4.8 11.3 0.00 0.15 0.00 50 1011.7
20260507120804 23 232 6.4 11.3 0.00 0.15 0.00 52 1011.7
20260507120701 23 153 4.8 11.3 0.00 0.15 0.00 50 1011.7
20260507120601 23 182 1.6 11.3 0.00 0.15 0.00 53 1011.7
20260507120505 22 190 3.2 11.3 0.00 0.15 0.00 46 1011.7
20260507120400 23 234 4.8 11.3 0.00 0.15 0.00 49 1011.7
20260507120300 22 253 3.2 11.3 0.00 0.15 0.00 52 1011.7
20260507120159 22 291 8.0 11.3 0.00 0.15 0.00 48 1011.7
20260507120133 22 280 4.8 11.3 0.00 0.15 0.00 48 1011.7
20260507115908 22 220 9.7 11.3 0.00 0.15 0.00 49 1011.7
20260507115601 22 18 3.2 9.7 0.00 0.15 0.00 46 1011.8
20260507115501 22 34 6.4 9.7 0.00 0.15 0.00 49 1011.7
20260507115401 22 30 3.2 12.9 0.00 0.15 0.00 45 1011.8
20260507115159 22 44 4.8 12.9 0.00 0.15 0.00 49 1011.8
20260507115100 22 44 3.2 12.9 0.00 0.15 0.00 47 1011.8
20260507115004 22 44 4.8 12.9 0.00 0.15 0.00 47 1011.8
20260507114900 22 20 3.2 12.9 0.00 0.15 0.00 47 1011.8
20260507114800 22 41 6.4 12.9 0.00 0.15 0.00 49 1011.9
20260507114600 22 81 8.0 12.9 0.00 0.15 0.00 49 1011.8
20260507114501 22 77 6.4 12.9 0.00 0.15 0.00 49 1011.8
20260507114159 22 342 1.6 11.3 0.00 0.15 0.00 48 1011.9
20260507114102 22 342 1.6 11.3 0.00 0.15 0.00 48 1011.9
20260507114002 22 342 3.2 11.3 0.00 0.15 0.00 49 1011.9
20260507113900 22 339 4.8 11.3 0.00 0.15 0.00 54 1011.9
20260507113803 22 348 4.8 11.3 0.00 0.15 0.00 47 1011.8
20260507113700 22 47 6.4 11.3 0.00 0.15 0.00 49 1011.9
20260507113600 22 47 4.8 11.3 0.00 0.15 0.00 46 1011.9
20260507113359 22 63 3.2 11.3 0.00 0.15 0.00 53 1011.9
20260507113259 22 62 4.8 11.3 0.00 0.15 0.00 54 1011.9
20260507113202 22 79 9.7 11.3 0.00 0.15 0.00 54 1011.9
20260507113059 22 76 4.8 9.7 0.00 0.15 0.00 50 1011.9
20260507113003 22 117 4.8 9.7 0.00 0.15 0.00 50 1011.9
20260507112902 22 119 3.2 11.3 0.00 0.15 0.00 50 1012.0
20260507112701 22 175 4.8 11.3 0.00 0.15 0.00 50 1012.0
20260507112603 22 178 4.8 11.3 0.00 0.15 0.00 47 1012.0
20260507112459 22 185 1.6 11.3 0.00 0.15 0.00 50 1012.0
20260507112359 22 173 1.6 11.3 0.00 0.15 0.00 55 1012.0
20260507112306 22 173 3.2 12.9 0.00 0.15 0.00 54 1012.1
20260507112200 21 173 0.0 12.9 0.00 0.15 0.00 53 1012.1
20260507112004 21 163 3.2 12.9 0.00 0.15 0.00 52 1012.1
20260507111900 21 188 11.3 12.9 0.00 0.15 0.00 55 1012.1
20260507111800 21 312 1.6 12.9 0.00 0.15 0.00 53 1012.1
20260507111704 21 314 6.4 12.9 0.00 0.15 0.00 50 1012.1
20260507111600 21 250 4.8 12.9 0.00 0.15 0.00 53 1012.1
20260507111500 21 294 4.8 12.9 0.00 0.15 0.00 54 1012.1
20260507111406 21 329 4.8 12.9 0.00 0.15 0.00 54 1012.1
20260507111300 21 286 9.7 12.9 0.00 0.15 0.00 54 1012.1
20260507111159 21 261 9.7 9.7 0.00 0.15 0.00 54 1012.1
20260507111105 21 248 4.8 9.7 0.00 0.15 0.00 53 1012.1
20260507111032 21 267 3.2 9.7 0.00 0.15 0.00 53 1012.1
20260507110900 21 267 1.6 9.7 0.00 0.15 0.00 53 1012.1
20260507110804 21 267 1.6 12.9 0.00 0.15 0.00 52 1012.1
20260507110700 21 267 3.2 12.9 0.00 0.15 0.00 54 1012.1
20260507110600 21 282 1.6 12.9 0.00 0.15 0.00 55 1012.1
20260507110504 21 290 6.4 12.9 0.00 0.15 0.00 54 1012.1
20260507110359 21 230 8.0 12.9 0.00 0.15 0.00 54 1012.2
20260507110202 21 244 6.4 12.9 0.00 0.15 0.00 54 1012.2
20260507110100 21 239 8.0 12.9 0.00 0.15 0.00 56 1012.2
20260507110020 21 227 6.4 12.9 0.00 0.15 0.00 54 1012.2
20260507105903 21 227 4.8 12.9 0.00 0.15 0.00 54 1012.2
20260507105802 21 200 6.4 9.7 0.00 0.15 0.00 52 1012.2
20260507105701 21 233 4.8 14.5 0.00 0.15 0.00 51 1012.2
20260507105609 21 225 8.0 14.5 0.00 0.15 0.00 53 1012.2
20260507105500 21 235 6.4 16.1 0.00 0.15 0.00 53 1012.3
20260507105359 21 216 3.2 16.1 0.00 0.15 0.00 53 1012.3
20260507105159 21 217 4.8 16.1 0.00 0.15 0.00 54 1012.3
20260507105059 21 258 6.4 16.1 0.00 0.15 0.00 55 1012.2
20260507105043 21 274 6.4 16.1 0.00 0.15 0.00 55 1012.2
20260507104910 21 240 3.2 16.1 0.00 0.15 0.00 53 1012.3
20260507104801 21 238 9.7 16.1 0.00 0.15 0.00 58 1012.3
20260507104703 21 271 6.4 16.1 0.00 0.15 0.00 57 1012.3
20260507104501 21 252 8.0 14.5 0.00 0.15 0.00 58 1012.2
20260507104404 21 278 6.4 12.9 0.00 0.15 0.00 56 1012.2
20260507104300 21 236 3.2 12.9 0.00 0.15 0.00 55 1012.2
20260507104200 21 165 3.2 12.9 0.00 0.15 0.00 55 1012.3
20260507104104 21 203 1.6 12.9 0.00 0.15 0.00 52 1012.3
20260507104001 21 186 9.7 12.9 0.00 0.15 0.00 52 1012.3
20260507103900 21 205 6.4 14.5 0.00 0.15 0.00 53 1012.3
20260507103803 21 214 8.0 16.1 0.00 0.15 0.00 53 1012.3
20260507103701 21 244 6.4 16.1 0.00 0.15 0.00 53 1012.4
20260507103601 21 328 4.8 16.1 0.00 0.15 0.00 54 1012.4
20260507103503 21 293 1.6 16.1 0.00 0.15 0.00 54 1012.4
20260507103400 21 248 0.0 16.1 0.00 0.15 0.00 57 1012.4
20260507103300 21 335 3.2 16.1 0.00 0.15 0.00 56 1012.4
20260507103100 21 273 4.8 16.1 0.00 0.15 0.00 59 1012.4
20260507103001 21 267 6.4 16.1 0.00 0.15 0.00 55 1012.4
20260507102903 21 273 9.7 16.1 0.00 0.15 0.00 55 1012.4
20260507102800 21 257 8.0 16.1 0.00 0.15 0.00 56 1012.4
20260507102701 21 210 4.8 16.1 0.00 0.15 0.00 51 1012.3
20260507102459 21 186 4.8 16.1 0.00 0.15 0.00 52 1012.3
20260507102307 21 222 11.3 16.1 0.00 0.15 0.00 53 1012.3
20260507102200 21 229 6.4 14.5 0.00 0.15 0.00 52 1012.4
20260507102100 21 303 9.7 14.5 0.00 0.15 0.00 56 1012.5
20260507102007 21 286 11.3 14.5 0.00 0.15 0.00 53 1012.5
20260507101901 21 273 8.0 17.7 0.00 0.15 0.00 53 1012.4
20260507101808 21 304 8.0 19.3 0.00 0.15 0.00 54 1012.4
20260507101703 21 246 8.0 19.3 0.00 0.15 0.00 54 1012.4
20260507101600 21 213 6.4 19.3 0.00 0.15 0.00 53 1012.4
20260507101500 21 180 4.8 19.3 0.00 0.15 0.00 54 1012.4
20260507101402 21 222 3.2 19.3 0.00 0.15 0.00 51 1012.4
20260507101201 21 236 12.9 19.3 0.00 0.15 0.00 54 1012.4
20260507101101 21 193 9.7 19.3 0.00 0.15 0.00 52 1012.4
20260507100901 21 180 14.5 19.3 0.00 0.15 0.00 55 1012.4
20260507100803 21 176 8.0 12.9 0.00 0.15 0.00 52 1012.4
20260507100700 21 171 11.3 14.5 0.00 0.15 0.00 54 1012.4
20260507100600 21 174 6.4 14.5 0.00 0.15 0.00 54 1012.4
20260507100401 21 179 4.8 19.3 0.00 0.15 0.00 51 1012.4
20260507100301 21 166 4.8 19.3 0.00 0.15 0.00 56 1012.4
20260507100203 21 166 8.0 19.3 0.00 0.15 0.00 52 1012.5
20260507100124 21 200 8.0 19.3 0.00 0.15 0.00 51 1012.5
20260507100006 21 207 4.8 19.3 0.00 0.15 0.00 51 1012.5
20260507095900 21 314 3.2 19.3 0.00 0.15 0.00 49 1012.5
20260507095803 21 217 3.2 19.3 0.00 0.15 0.00 52 1012.5
20260507095700 21 215 11.3 19.3 0.00 0.15 0.00 55 1012.5
20260507095600 21 211 11.3 19.3 0.00 0.15 0.00 55 1012.5
20260507095503 21 225 14.5 19.3 0.00 0.15 0.00 55 1012.5
20260507095400 21 213 14.5 17.7 0.00 0.15 0.00 54 1012.5
20260507095301 21 208 8.0 17.7 0.00 0.15 0.00 55 1012.5
20260507095204 21 165 3.2 17.7 0.00 0.15 0.00 57 1012.5
20260507095100 21 161 4.8 17.7 0.00 0.15 0.00 55 1012.6
20260507094759 21 211 14.5 17.7 0.00 0.15 0.00 57 1012.5
20260507094700 21 215 11.3 16.1 0.00 0.15 0.00 57 1012.5
20260507094604 21 186 6.4 16.1 0.00 0.15 0.00 58 1012.5
20260507094501 21 164 4.8 16.1 0.00 0.15 0.00 56 1012.5
20260507094400 21 159 9.7 19.3 0.00 0.15 0.00 55 1012.5
20260507094304 21 201 9.7 19.3 0.00 0.15 0.00 57 1012.5
20260507094201 20 198 11.3 20.9 0.00 0.15 0.00 55 1012.4
20260507094059 20 188 4.8 20.9 0.00 0.15 0.00 56 1012.5
20260507093800 20 184 9.7 25.7 0.00 0.15 0.00 57 1012.5
20260507093707 20 265 4.8 27.4 0.00 0.15 0.00 55 1012.5
20260507093601 20 199 14.5 27.4 0.00 0.15 0.00 56 1012.5
20260507093501 20 209 8.0 30.6 0.00 0.15 0.00 54 1012.5
20260507093405 20 212 19.3 30.6 0.00 0.15 0.00 55 1012.5
20260507093302 20 178 19.3 30.6 0.00 0.15 0.00 55 1012.5
20260507093201 20 186 12.9 30.6 0.00 0.15 0.00 55 1012.5
20260507093107 20 182 16.1 30.6 0.00 0.15 0.00 57 1012.5
20260507092959 20 186 11.3 30.6 0.00 0.15 0.00 57 1012.5
20260507092900 20 183 19.3 30.6 0.00 0.15 0.00 58 1012.6
20260507092803 20 180 22.5 30.6 0.00 0.15 0.00 57 1012.5
20260507092700 20 196 16.1 30.6 0.00 0.15 0.00 54 1012.5
20260507092601 20 196 14.5 30.6 0.00 0.15 0.00 58 1012.5
20260507092503 20 186 29.0 30.6 0.00 0.15 0.00 59 1012.5
20260507092401 20 185 12.9 22.5 0.00 0.15 0.00 59 1012.5
20260507092300 20 173 8.0 22.5 0.00 0.15 0.00 57 1012.5
20260507092203 20 288 1.6 22.5 0.00 0.15 0.00 54 1012.5
20260507092100 20 282 6.4 22.5 0.00 0.15 0.00 56 1012.5
20260507092001 20 290 6.4 22.5 0.00 0.15 0.00 54 1012.6
20260507091902 20 250 14.5 22.5 0.00 0.15 0.00 58 1012.6
20260507091800 20 277 8.0 22.5 0.00 0.15 0.00 58 1012.6
20260507091500 20 231 16.1 22.5 0.00 0.15 0.00 59 1012.6
20260507091400 20 242 11.3 17.7 0.00 0.15 0.00 60 1012.5
20260507091302 20 219 14.5 24.1 0.00 0.15 0.00 56 1012.5
20260507091200 20 205 11.3 27.4 0.00 0.15 0.00 57 1012.5
20260507091100 20 173 11.3 27.4 0.00 0.15 0.00 55 1012.5
20260507091007 20 203 12.9 27.4 0.00 0.15 0.00 58 1012.5
20260507090901 20 219 19.3 27.4 0.00 0.15 0.00 56 1012.5
20260507090802 20 196 14.5 27.4 0.00 0.15 0.00 58 1012.5
20260507090702 20 186 11.3 27.4 0.00 0.15 0.00 57 1012.5
20260507090600 20 188 12.9 27.4 0.00 0.15 0.00 58 1012.5
20260507090500 20 222 17.7 27.4 0.00 0.15 0.00 55 1012.5
20260507090403 20 262 11.3 27.4 0.00 0.15 0.00 58 1012.5
20260507090301 20 223 20.9 27.4 0.00 0.15 0.00 56 1012.6
20260507090201 20 190 8.0 19.3 0.00 0.15 0.00 61 1012.5
20260507090105 20 246 8.0 19.3 0.00 0.15 0.00 60 1012.5
20260507090007 20 235 4.8 19.3 0.00 0.15 0.00 56 1012.5
20260507085900 20 237 11.3 19.3 0.00 0.15 0.00 62 1012.6
20260507085719 20 261 14.5 19.3 0.00 0.15 0.00 56 1012.5
20260507085400 20 218 8.0 19.3 0.00 0.15 0.00 57 1012.5
20260507085300 20 170 8.0 19.3 0.00 0.15 0.00 57 1012.5
20260507085203 20 196 11.3 19.3 0.00 0.15 0.00 57 1012.5
20260507085100 20 199 11.3 19.3 0.00 0.15 0.00 56 1012.5
20260507085001 20 198 8.0 19.3 0.00 0.15 0.00 55 1012.5
20260507084800 20 186 11.3 16.1 0.00 0.15 0.00 60 1012.5
20260507084700 20 175 8.0 16.1 0.00 0.15 0.00 59 1012.6
20260507084602 20 228 12.9 12.9 0.00 0.15 0.00 59 1012.5
20260507084303 20 221 3.2 11.3 0.00 0.15 0.00 60 1012.5
20260507084200 20 302 3.2 11.3 0.00 0.15 0.00 60 1012.4
20260507084004 20 259 3.2 12.9 0.00 0.15 0.00 61 1012.4
20260507083900 20 241 3.2 12.9 0.00 0.15 0.00 59 1012.4
20260507083800 20 275 8.0 12.9 0.00 0.15 0.00 61 1012.3
20260507083703 20 207 6.4 12.9 0.00 0.15 0.00 58 1012.3
20260507083600 20 248 3.2 12.9 0.00 0.15 0.00 58 1012.3
20260507083500 20 312 4.8 12.9 0.00 0.15 0.00 60 1012.3
20260507083300 20 182 8.0 12.9 0.00 0.15 0.00 58 1012.3
20260507083105 20 240 8.0 11.3 0.00 0.15 0.00 62 1012.3
20260507082913 19 161 1.6 11.3 0.00 0.15 0.00 56 1012.3
20260507082812 19 292 6.4 11.3 0.00 0.15 0.00 57 1012.3
20260507082603 19 263 3.2 11.3 0.00 0.15 0.00 57 1012.3
20260507082400 19 288 4.8 11.3 0.00 0.15 0.00 59 1012.2
20260507082306 19 198 9.7 11.3 0.00 0.15 0.00 57 1012.2
20260507082100 19 277 3.2 9.7 0.00 0.15 0.00 56 1012.3
20260507082007 19 209 4.8 9.7 0.00 0.15 0.00 55 1012.3
20260507081901 19 210 4.8 9.7 0.00 0.15 0.00 58 1012.2
20260507081800 19 225 1.6 11.3 0.00 0.15 0.00 58 1012.2
20260507081707 19 275 3.2 12.9 0.00 0.15 0.00 60 1012.2
20260507081601 19 275 1.6 12.9 0.00 0.15 0.00 58 1012.3
20260507081500 19 197 6.4 12.9 0.00 0.15 0.00 57 1012.3
20260507081402 19 234 3.2 14.5 0.00 0.15 0.00 55 1012.2
20260507081302 19 248 8.0 14.5 0.00 0.15 0.00 56 1012.2
20260507081200 19 265 3.2 14.5 0.00 0.15 0.00 55 1012.2
20260507081004 19 251 8.0 14.5 0.00 0.15 0.00 56 1012.2
20260507080900 19 271 6.4 14.5 0.00 0.15 0.00 55 1012.2
20260507080802 19 258 6.4 19.3 0.00 0.15 0.00 58 1012.2
20260507080705 19 234 6.4 19.3 0.00 0.15 0.00 59 1012.2
20260507080559 19 211 8.0 19.3 0.00 0.15 0.00 59 1012.2
20260507080504 19 250 6.4 19.3 0.00 0.15 0.00 59 1012.2
20260507080401 19 244 8.0 19.3 0.00 0.15 0.00 60 1012.2
20260507080300 19 255 8.0 19.3 0.00 0.15 0.00 61 1012.2
20260507080203 19 209 9.7 19.3 0.00 0.15 0.00 60 1012.2
20260507080116 19 242 11.3 19.3 0.00 0.15 0.00 59 1012.2
20260507080007 19 238 6.4 19.3 0.00 0.15 0.00 59 1012.3
20260507075902 19 220 11.3 19.3 0.00 0.15 0.00 59 1012.2
20260507075702 19 220 12.9 12.9 0.00 0.15 0.00 61 1012.2
20260507075620 19 219 9.7 12.9 0.00 0.15 0.00 61 1012.2
20260507075500 19 225 6.4 12.9 0.00 0.15 0.00 58 1012.2
20260507075306 19 267 9.7 12.9 0.00 0.15 0.00 60 1012.1
20260507075159 18 224 4.8 11.3 0.00 0.15 0.00 61 1012.2
20260507075101 18 279 4.8 12.9 0.00 0.15 0.00 58 1012.2
20260507075005 18 210 8.0 12.9 0.00 0.15 0.00 58 1012.2
20260507074801 18 290 8.0 12.9 0.00 0.15 0.00 58 1012.1
20260507074702 18 268 3.2 12.9 0.00 0.15 0.00 57 1012.2
20260507074600 18 266 3.2 12.9 0.00 0.15 0.00 57 1012.2
20260507074502 18 292 8.0 12.9 0.00 0.15 0.00 56 1012.2
20260507074403 18 268 6.4 12.9 0.00 0.15 0.00 57 1012.1
20260507074301 18 222 6.4 12.9 0.00 0.15 0.00 55 1012.2
20260507074202 18 220 8.0 12.9 0.00 0.15 0.00 54 1012.2
20260507074102 18 234 11.3 12.9 0.00 0.15 0.00 57 1012.2
20260507074000 18 252 4.8 11.3 0.00 0.15 0.00 56 1012.1
20260507073902 18 216 9.7 12.9 0.00 0.15 0.00 57 1012.2
20260507073803 18 259 6.4 12.9 0.00 0.15 0.00 57 1012.2
20260507073700 18 244 9.7 12.9 0.00 0.15 0.00 58 1012.2
20260507073503 18 271 3.2 12.9 0.00 0.15 0.00 58 1012.2
20260507073400 18 215 6.4 12.9 0.00 0.15 0.00 60 1012.2
20260507073303 18 273 6.4 12.9 0.00 0.15 0.00 60 1012.1
20260507073202 18 228 4.8 12.9 0.00 0.15 0.00 61 1012.1
20260507073100 18 284 9.7 12.9 0.00 0.15 0.00 61 1012.1
20260507073000 18 265 4.8 12.9 0.00 0.15 0.00 59 1012.1
20260507072904 18 265 11.3 14.5 0.00 0.15 0.00 59 1012.1
20260507072800 18 252 9.7 14.5 0.00 0.15 0.00 58 1012.1
20260507072702 18 270 6.4 14.5 0.00 0.15 0.00 60 1012.2
20260507072620 18 278 6.4 14.5 0.00 0.15 0.00 60 1012.2
20260507072501 18 207 4.8 14.5 0.00 0.15 0.00 59 1012.2
20260507072400 18 202 8.0 14.5 0.00 0.15 0.00 60 1012.2
20260507072201 18 234 8.0 14.5 0.00 0.15 0.00 60 1012.3
20260507072100 18 219 12.9 14.5 0.00 0.15 0.00 60 1012.3
20260507072005 18 213 8.0 14.5 0.00 0.15 0.00 62 1012.3
20260507071900 18 224 11.3 12.9 0.00 0.15 0.00 63 1012.3
20260507071801 18 232 3.2 11.3 0.00 0.15 0.00 63 1012.3
20260507071707 18 263 8.0 11.3 0.00 0.15 0.00 62 1012.3
20260507071610 18 260 4.8 11.3 0.00 0.15 0.00 64 1012.2
20260507071506 18 215 4.8 11.3 0.00 0.15 0.00 62 1012.2
20260507071402 18 215 4.8 11.3 0.00 0.15 0.00 60 1012.2
20260507071300 18 215 4.8 11.3 0.00 0.15 0.00 60 1012.3
20260507071202 18 227 8.0 11.3 0.00 0.15 0.00 60 1012.2
20260507071001 18 221 8.0 12.9 0.00 0.15 0.00 61 1012.3
20260507070901 18 217 4.8 12.9 0.00 0.15 0.00 63 1012.2
20260507070703 18 214 3.2 12.9 0.00 0.15 0.00 64 1012.2
20260507070600 18 221 6.4 12.9 0.00 0.15 0.00 62 1012.2
20260507070503 17 221 6.4 12.9 0.00 0.15 0.00 62 1012.2
20260507070400 17 214 8.0 12.9 0.00 0.15 0.00 63 1012.2
20260507070300 17 199 8.0 12.9 0.00 0.15 0.00 62 1012.2
20260507070204 17 224 11.3 12.9 0.00 0.15 0.00 63 1012.2
20260507070100 17 232 8.0 12.9 0.00 0.15 0.00 62 1012.2
20260507065905 17 221 9.7 12.9 0.00 0.15 0.00 64 1012.1
20260507065700 17 236 9.7 12.9 0.00 0.15 0.00 66 1012.1
20260507065605 17 259 4.8 12.9 0.00 0.15 0.00 64 1012.1
20260507065400 17 257 4.8 12.9 0.00 0.15 0.00 65 1012.1
20260507065306 17 246 6.4 12.9 0.00 0.15 0.00 63 1012.1
20260507065200 17 209 6.4 12.9 0.00 0.15 0.00 65 1012.1
20260507065059 17 223 9.7 12.9 0.00 0.15 0.00 65 1012.1
20260507065004 17 224 9.7 12.9 0.00 0.15 0.00 64 1012.1
20260507064900 17 211 11.3 14.5 0.00 0.15 0.00 66 1012.1
20260507064802 17 226 8.0 14.5 0.00 0.15 0.00 65 1012.1
20260507064702 17 262 4.8 14.5 0.00 0.15 0.00 64 1012.1
20260507064500 17 232 11.3 14.5 0.00 0.15 0.00 67 1012.1
20260507064259 17 211 9.7 14.5 0.00 0.15 0.00 66 1012.1
20260507064200 17 226 9.7 14.5 0.00 0.15 0.00 66 1012.1
20260507064103 17 218 8.0 14.5 0.00 0.15 0.00 66 1012.0
20260507064000 17 239 11.3 14.5 0.00 0.15 0.00 67 1012.0
20260507063859 17 232 8.0 14.5 0.00 0.15 0.00 67 1012.0
20260507063802 17 220 11.3 14.5 0.00 0.15 0.00 66 1012.0
20260507063600 16 257 8.0 14.5 0.00 0.15 0.00 67 1012.0
20260507063504 16 264 9.7 14.5 0.00 0.15 0.00 67 1012.0
20260507063300 16 234 4.8 14.5 0.00 0.15 0.00 67 1011.9
20260507063100 16 254 6.4 14.5 0.00 0.15 0.00 67 1011.9
20260507063000 16 226 9.7 14.5 0.00 0.15 0.00 68 1011.9
20260507062903 16 227 11.3 12.9 0.00 0.15 0.00 67 1011.9
20260507062800 16 268 8.0 12.9 0.00 0.15 0.00 68 1011.9
20260507062703 16 260 6.4 12.9 0.00 0.15 0.00 69 1011.9
20260507062602 16 257 8.0 12.9 0.00 0.15 0.00 70 1011.9
20260507062500 16 265 8.0 12.9 0.00 0.15 0.00 71 1011.9
20260507062400 16 244 9.7 9.7 0.00 0.15 0.00 71 1011.9
20260507062305 16 240 4.8 8.0 0.00 0.15 0.00 70 1011.9
20260507062200 16 262 4.8 8.0 0.00 0.15 0.00 70 1011.9
20260507062059 16 269 6.4 8.0 0.00 0.15 0.00 72 1011.9
20260507061900 16 223 4.8 9.7 0.00 0.15 0.00 70 1011.9
20260507061800 16 246 4.8 9.7 0.00 0.15 0.00 71 1011.9
20260507061703 16 262 6.4 9.7 0.00 0.15 0.00 73 1011.9
20260507061500 16 258 3.2 9.7 0.00 0.15 0.00 71 1011.8
20260507061402 16 258 1.6 9.7 0.00 0.15 0.00 71 1011.8
20260507061301 15 257 4.8 9.7 0.00 0.15 0.00 71 1011.8
20260507061200 15 260 6.4 9.7 0.00 0.15 0.00 72 1011.8
20260507061103 15 272 4.8 9.7 0.00 0.15 0.00 72 1011.8
20260507061000 15 263 6.4 9.7 0.00 0.15 0.00 72 1011.8
20260507060802 15 276 3.2 11.3 0.00 0.15 0.00 73 1011.8
20260507060700 15 245 8.0 11.3 0.00 0.15 0.00 73 1011.8
20260507060601 15 256 4.8 11.3 0.00 0.15 0.00 73 1011.8
20260507060502 15 260 6.4 11.3 0.00 0.15 0.00 74 1011.8
20260507060300 15 252 4.8 11.3 0.00 0.15 0.00 74 1011.8
20260507060119 15 274 9.7 11.3 0.00 0.15 0.00 75 1011.8
20260507060007 15 281 6.4 11.3 0.00 0.15 0.00 75 1011.8
20260507055903 15 296 8.0 9.7 0.00 0.20 0.00 76 1011.8
20260507055602 14 296 3.2 9.7 0.00 0.20 0.00 76 1011.8
20260507055502 14 300 9.7 9.7 0.00 0.20 0.00 76 1011.9
20260507055359 14 277 4.8 8.0 0.00 0.20 0.00 77 1011.8
20260507055305 14 289 3.2 8.0 0.00 0.20 0.00 76 1011.9
20260507055201 14 311 6.4 8.0 0.00 0.20 0.00 77 1011.8
20260507055100 14 311 6.4 8.0 0.00 0.20 0.00 77 1011.8
20260507055005 13 288 6.4 8.0 0.00 0.20 0.00 77 1011.8
20260507054759 13 298 4.8 6.4 0.00 0.20 0.00 79 1011.8
20260507054602 13 306 4.8 6.4 0.00 0.20 0.00 80 1011.8
20260507054500 13 306 1.6 6.4 0.00 0.20 0.00 80 1011.8
20260507054403 13 306 6.4 6.4 0.00 0.20 0.00 80 1011.8
20260507054302 13 319 6.4 6.4 0.00 0.20 0.00 80 1011.7
20260507054201 13 319 6.4 6.4 0.00 0.20 0.00 81 1011.8
20260507054104 13 319 4.8 6.4 0.00 0.20 0.00 81 1011.8
20260507054005 13 326 6.4 6.4 0.00 0.20 0.00 81 1011.8
20260507053802 13 320 3.2 6.4 0.00 0.20 0.00 81 1011.8
20260507053702 13 158 4.8 6.4 0.00 0.20 0.00 81 1011.7
20260507053600 13 158 3.2 6.4 0.00 0.20 0.00 81 1011.8
20260507053502 13 158 4.8 4.8 0.00 0.20 0.00 81 1011.7
20260507053402 13 158 3.2 4.8 0.00 0.20 0.00 81 1011.8
20260507053300 13 158 4.8 4.8 0.00 0.20 0.00 81 1011.7
20260507053203 13 158 3.2 6.4 0.00 0.20 0.00 81 1011.7
20260507053102 13 158 3.2 6.4 0.00 0.20 0.00 81 1011.7
20260507052801 12 158 3.2 6.4 0.00 0.20 0.00 81 1011.7
20260507052703 12 158 1.6 6.4 0.00 0.20 0.00 81 1011.7
20260507052604 12 158 3.2 6.4 0.00 0.20 0.00 82 1011.7
20260507052500 12 158 4.8 6.4 0.00 0.20 0.00 82 1011.7
20260507052413 12 158 4.8 6.4 0.00 0.20 0.00 82 1011.7
20260507052305 12 158 3.2 6.4 0.00 0.20 0.00 83 1011.7
20260507052159 12 158 4.8 6.4 0.00 0.20 0.00 83 1011.7
20260507052102 12 158 4.8 4.8 0.00 0.20 0.00 82 1011.7
20260507052006 12 158 1.6 4.8 0.00 0.20 0.00 83 1011.7
20260507051900 12 158 1.6 4.8 0.00 0.20 0.00 82 1011.7
20260507051803 12 158 3.2 4.8 0.00 0.20 0.00 82 1011.7
20260507051703 12 211 3.2 4.8 0.00 0.20 0.00 83 1011.6
20260507051600 12 211 0.0 6.4 0.00 0.20 0.00 83 1011.6
20260507051505 12 211 0.0 6.4 0.00 0.20 0.00 83 1011.6
20260507051403 12 211 0.0 6.4 0.00 0.20 0.00 83 1011.6
20260507051300 12 211 3.2 6.4 0.00 0.20 0.00 83 1011.6
20260507051201 12 211 1.6 8.0 0.00 0.20 0.00 83 1011.6
20260507051002 12 211 1.6 9.7 0.00 0.20 0.00 83 1011.6
20260507050902 12 211 1.6 9.7 0.00 0.20 0.00 83 1011.5
20260507050802 12 211 0.0 9.7 0.00 0.20 0.00 83 1011.6
20260507050700 11 211 3.2 9.7 0.00 0.20 0.00 83 1011.5
20260507050503 11 211 3.2 11.3 0.00 0.20 0.00 84 1011.5
20260507050401 11 208 1.6 11.3 0.00 0.20 0.00 84 1011.4
20260507050302 11 208 3.2 12.9 0.00 0.20 0.00 84 1011.4
20260507050006 11 209 9.7 12.9 0.00 0.20 0.00 84 1011.4
20260507045903 11 202 6.4 12.9 0.00 0.36 0.00 84 1011.3
20260507045800 11 205 8.0 12.9 0.00 0.36 0.00 85 1011.4
20260507045702 11 209 9.7 12.9 0.00 0.36 0.00 85 1011.3
20260507045604 11 197 8.0 12.9 0.00 0.36 0.00 85 1011.3
20260507045459 11 190 9.7 12.9 0.00 0.36 0.00 85 1011.3
20260507045359 11 189 11.3 12.9 0.00 0.36 0.00 85 1011.3
20260507045331 11 186 11.3 11.3 0.00 0.36 0.00 85 1011.3
20260507045159 11 205 8.0 11.3 0.00 0.36 0.00 85 1011.3
20260507045059 11 208 9.7 11.3 0.00 0.36 0.00 86 1011.3
20260507044900 11 207 8.0 11.3 0.00 0.36 0.00 86 1011.3
20260507044800 11 214 8.0 11.3 0.00 0.36 0.00 86 1011.3
20260507044559 10 209 9.7 11.3 0.00 0.36 0.00 86 1011.2
20260507044500 10 213 6.4 11.3 0.00 0.36 0.00 86 1011.3
20260507044402 10 215 9.7 11.3 0.00 0.36 0.00 85 1011.3
20260507044259 10 214 6.4 9.7 0.00 0.36 0.00 85 1011.3
20260507044102 10 213 6.4 9.7 0.00 0.36 0.00 85 1011.3
20260507044001 10 223 8.0 9.7 0.00 0.36 0.00 85 1011.3
20260507043900 10 227 6.4 9.7 0.00 0.36 0.00 85 1011.3
20260507043803 10 211 8.0 9.7 0.00 0.36 0.00 85 1011.3
20260507043700 10 207 8.0 9.7 0.00 0.36 0.00 85 1011.3
20260507043600 10 201 8.0 8.0 0.00 0.36 0.00 85 1011.2
20260507043503 10 199 6.4 8.0 0.00 0.36 0.00 85 1011.2
20260507043400 10 196 4.8 8.0 0.00 0.36 0.00 85 1011.2
20260507043259 10 196 6.4 8.0 0.00 0.36 0.00 85 1011.2
20260507043203 10 198 6.4 8.0 0.00 0.36 0.00 84 1011.2
20260507043111 10 208 6.4 8.0 0.00 0.36 0.00 84 1011.2
20260507043000 10 229 6.4 6.4 0.00 0.36 0.00 84 1011.2
20260507042905 10 200 4.8 6.4 0.00 0.36 0.00 84 1011.2
20260507042800 10 196 4.8 8.0 0.00 0.36 0.00 84 1011.2
20260507042713 10 196 3.2 8.0 0.00 0.36 0.00 84 1011.2
20260507042606 10 196 3.2 8.0 0.00 0.36 0.00 84 1011.2
20260507042500 10 196 4.8 8.0 0.00 0.36 0.00 84 1011.1
20260507042402 10 206 6.4 8.0 0.00 0.36 0.00 84 1011.2
20260507042307 10 200 4.8 8.0 0.00 0.36 0.00 84 1011.2
20260507042159 10 200 4.8 8.0 0.00 0.36 0.00 84 1011.1
20260507042102 10 200 1.6 8.0 0.00 0.36 0.00 84 1011.1
20260507042023 10 200 1.6 8.0 0.00 0.36 0.00 84 1011.1
20260507041901 10 200 6.4 8.0 0.00 0.36 0.00 84 1011.1
20260507041705 11 200 4.8 6.4 0.00 0.36 0.00 83 1011.1
20260507041600 11 200 4.8 6.4 0.00 0.36 0.00 83 1011.0
20260507041502 11 200 4.8 6.4 0.00 0.36 0.00 83 1011.1
20260507041403 11 184 3.2 6.4 0.00 0.36 0.00 83 1011.1
20260507041301 11 184 4.8 6.4 0.00 0.36 0.00 83 1011.1
20260507041201 11 184 4.8 6.4 0.00 0.36 0.00 83 1011.0
20260507041102 11 184 4.8 6.4 0.00 0.36 0.00 83 1011.0
20260507041000 11 184 4.8 6.4 0.00 0.36 0.00 83 1011.1
20260507040902 11 184 3.2 6.4 0.00 0.36 0.00 83 1011.0
20260507040802 11 184 3.2 8.0 0.00 0.36 0.00 83 1011.0
20260507040700 11 184 1.6 8.0 0.00 0.36 0.00 83 1011.1
20260507040605 11 184 1.6 8.0 0.00 0.36 0.00 83 1011.1
20260507040400 11 205 3.2 8.0 0.00 0.36 0.00 83 1011.0
20260507040301 11 205 1.6 8.0 0.00 0.36 0.00 83 1011.0
20260507040202 11 205 3.2 8.0 0.00 0.36 0.00 83 1011.0
20260507040117 11 192 4.8 8.0 0.00 0.36 0.00 82 1011.0
20260507040007 11 221 3.2 8.0 0.00 0.36 0.00 82 1010.9
20260507035759 11 232 3.2 6.4 0.00 0.89 0.00 82 1010.9
20260507035702 11 225 1.6 6.4 0.00 0.89 0.00 82 1011.0
20260507035500 11 245 3.2 4.8 0.00 0.89 0.00 82 1010.9
20260507035402 11 332 3.2 6.4 0.00 0.89 0.00 81 1010.9
20260507035200 11 332 0.0 9.7 0.00 0.89 0.00 81 1010.9
20260507035004 11 186 1.6 9.7 0.00 0.89 0.00 81 1010.9
20260507034859 11 186 0.0 9.7 0.00 0.89 0.00 81 1010.8
20260507034801 11 186 3.2 9.7 0.00 0.89 0.00 81 1010.8
20260507034702 11 186 1.6 9.7 0.00 0.89 0.00 80 1010.8
20260507034602 11 186 1.6 9.7 0.00 0.89 0.00 80 1010.7
20260507034502 11 186 4.8 9.7 0.00 0.89 0.00 79 1010.7
20260507034404 12 346 3.2 9.7 0.00 0.89 0.00 79 1010.6
20260507034300 12 344 8.0 9.7 0.00 0.89 0.00 78 1010.6
20260507034201 12 332 8.0 9.7 0.00 0.89 0.00 78 1010.7
20260507034107 12 344 6.4 9.7 0.00 0.89 0.00 78 1010.7
20260507034007 12 344 4.8 9.7 0.00 0.89 0.00 78 1010.6
20260507033901 12 345 6.4 9.7 0.00 0.89 0.00 77 1010.6
20260507033803 12 345 4.8 9.7 0.00 0.89 0.00 77 1010.6
20260507033700 12 325 4.8 9.7 0.00 0.89 0.00 77 1010.6
20260507033602 12 335 6.4 11.3 0.00 0.89 0.00 77 1010.6
20260507033401 12 319 8.0 11.3 0.00 0.89 0.00 77 1010.6
20260507033302 12 342 3.2 11.3 0.00 0.89 0.00 77 1010.6
20260507033204 12 332 4.8 11.3 0.00 0.89 0.00 77 1010.6
20260507033059 12 309 3.2 11.3 0.00 0.89 0.00 76 1010.6
20260507033002 12 309 4.8 11.3 0.00 0.89 0.00 76 1010.6
20260507032902 12 237 3.2 11.3 0.00 0.89 0.00 75 1010.6
20260507032801 12 237 3.2 11.3 0.00 0.89 0.00 75 1010.5
20260507032703 12 211 9.7 11.3 0.00 0.89 0.00 76 1010.5
20260507032501 12 242 3.2 11.3 0.00 0.89 0.00 76 1010.5
20260507032403 12 242 4.8 11.3 0.00 0.89 0.00 76 1010.5
20260507032305 12 225 6.4 11.3 0.00 0.89 0.00 76 1010.6
20260507032004 13 245 4.8 11.3 0.00 0.89 0.00 76 1010.6
20260507031901 13 242 4.8 11.3 0.00 0.89 0.00 75 1010.6
20260507031800 13 261 3.2 11.3 0.00 0.89 0.00 75 1010.6
20260507031600 13 286 6.4 11.3 0.00 0.89 0.00 75 1010.6
20260507031503 13 286 3.2 11.3 0.00 0.89 0.00 75 1010.5
20260507031402 13 306 8.0 11.3 0.00 0.89 0.00 74 1010.5
20260507031301 13 325 4.8 11.3 0.00 0.89 0.00 76 1010.5
20260507031104 13 316 6.4 11.3 0.00 0.89 0.00 74 1010.5
20260507031000 13 335 8.0 11.3 0.00 0.89 0.00 74 1010.6
20260507030903 13 334 6.4 11.3 0.00 0.89 0.00 74 1010.6
20260507030805 13 331 6.4 11.3 0.00 0.89 0.00 73 1010.6
20260507030659 13 320 8.0 11.3 0.00 0.89 0.00 73 1010.6
20260507030601 14 338 6.4 11.3 0.00 0.89 0.00 73 1010.6
20260507030400 14 355 4.8 11.3 0.00 0.89 0.00 73 1010.5
20260507030202 14 355 11.3 11.3 0.00 0.89 0.00 72 1010.5
20260507030100 14 348 8.0 11.3 0.00 0.89 0.00 72 1010.5
20260507030005 14 13 4.8 12.9 0.00 0.89 0.00 71 1010.4
20260507025902 14 355 6.4 12.9 0.00 0.94 0.00 71 1010.4
20260507025759 15 12 9.7 12.9 0.00 0.94 0.00 68 1010.4
20260507025702 15 355 9.7 12.9 0.00 0.94 0.00 67 1010.4
20260507025602 15 327 6.4 12.9 0.00 0.94 0.00 67 1010.4
20260507025500 15 21 1.6 12.9 0.00 0.94 0.00 67 1010.4
20260507025401 15 201 1.6 12.9 0.00 0.94 0.00 66 1010.3
20260507025306 14 201 1.6 16.1 0.00 0.94 0.00 66 1010.3
20260507025159 14 184 3.2 19.3 0.00 0.94 0.00 67 1010.4
20260507025102 14 194 6.4 19.3 0.00 0.94 0.00 68 1010.4
20260507025004 14 177 9.7 19.3 0.00 0.94 0.00 68 1010.4
20260507024859 14 182 6.4 19.3 0.00 0.94 0.00 68 1010.3
20260507024801 14 200 6.4 19.3 0.00 0.94 0.00 68 1010.3
20260507024703 14 215 9.7 19.3 0.00 0.94 0.00 69 1010.3
20260507024559 14 187 9.7 19.3 0.00 0.94 0.00 69 1010.3
20260507024503 14 187 8.0 19.3 0.00 0.94 0.00 69 1010.2
20260507024404 14 189 8.0 19.3 0.00 0.94 0.00 70 1010.2
20260507024301 14 186 8.0 19.3 0.00 0.94 0.00 70 1010.2
20260507024203 14 195 12.9 17.7 0.00 0.94 0.00 71 1010.2
20260507024105 14 196 11.3 17.7 0.00 0.94 0.00 71 1010.2
20260507024000 14 167 8.0 17.7 0.00 0.94 0.00 71 1010.2
20260507023901 14 182 8.0 20.9 0.00 0.94 0.00 71 1010.2
20260507023802 14 175 8.0 20.9 0.00 0.94 0.00 71 1010.2
20260507023601 14 167 12.9 20.9 0.00 0.94 0.00 71 1010.2
20260507023502 14 176 11.3 20.9 0.00 0.94 0.00 71 1010.3
20260507023301 14 174 8.0 20.9 0.00 0.94 0.00 70 1010.3
20260507023059 14 169 11.3 20.9 0.00 0.94 0.00 71 1010.3
20260507023003 14 170 11.3 20.9 0.00 0.94 0.00 71 1010.3
20260507022903 14 179 11.3 20.9 0.00 0.94 0.00 70 1010.3
20260507022702 14 198 12.9 17.7 0.00 0.94 0.00 71 1010.4
20260507022603 14 182 17.7 19.3 0.00 0.94 0.00 71 1010.4
20260507022501 14 184 14.5 19.3 0.00 0.94 0.00 71 1010.5
20260507022406 14 184 14.5 19.3 0.00 0.94 0.00 71 1010.5
20260507022306 14 192 12.9 17.7 0.00 0.94 0.00 71 1010.5
20260507022159 14 188 9.7 19.3 0.00 0.94 0.00 71 1010.5
20260507022102 14 190 12.9 19.3 0.00 0.94 0.00 71 1010.5
20260507022003 14 223 14.5 17.7 0.00 0.94 0.00 71 1010.5
20260507021900 14 205 16.1 17.7 0.00 0.94 0.00 71 1010.5
20260507021801 15 185 11.3 17.7 0.00 0.94 0.00 71 1010.5
20260507021702 14 211 11.3 17.7 0.00 0.94 0.00 71 1010.5
20260507021559 14 224 12.9 17.7 0.00 0.94 0.00 71 1010.5
20260507021402 15 223 11.3 17.7 0.00 0.94 0.00 71 1010.6
20260507021300 15 229 11.3 17.7 0.00 0.94 0.00 71 1010.6
20260507021103 15 241 12.9 16.1 0.00 0.94 0.00 70 1010.6
20260507021001 15 225 9.7 16.1 0.00 0.94 0.00 70 1010.6
20260507020901 15 233 9.7 16.1 0.00 0.94 0.00 70 1010.6
20260507020659 14 218 12.9 16.1 0.00 0.94 0.00 70 1010.6
20260507020601 14 240 9.7 16.1 0.00 0.94 0.00 71 1010.6
20260507020505 14 211 11.3 16.1 0.00 0.94 0.00 71 1010.6
20260507020400 14 225 8.0 16.1 0.00 0.94 0.00 71 1010.6
20260507020204 14 236 12.9 16.1 0.00 0.94 0.00 72 1010.6
20260507015902 14 229 12.9 12.9 0.00 0.97 0.00 73 1010.6
20260507015801 14 247 8.0 11.3 0.00 0.97 0.00 73 1010.6
20260507015702 14 243 11.3 11.3 0.00 0.97 0.00 73 1010.6
20260507015602 14 249 6.4 9.7 0.00 0.97 0.00 73 1010.6
20260507015200 14 227 3.2 9.7 0.00 0.97 0.00 72 1010.6
20260507015102 14 227 4.8 9.7 0.00 0.97 0.00 72 1010.6
20260507015006 14 227 3.2 11.3 0.00 0.97 0.00 72 1010.6
20260507014859 14 227 6.4 11.3 0.00 0.97 0.00 72 1010.6
20260507014802 14 227 4.8 11.3 0.00 0.97 0.00 72 1010.6
20260507014702 14 213 8.0 11.3 0.00 0.97 0.00 73 1010.6
20260507014605 14 246 3.2 11.3 0.00 0.97 0.00 72 1010.6
20260507014502 14 231 4.8 11.3 0.00 0.97 0.00 72 1010.7
20260507014402 14 254 4.8 11.3 0.00 0.97 0.00 72 1010.7
20260507014259 14 221 6.4 11.3 0.00 0.97 0.00 72 1010.7
20260507014203 14 252 6.4 11.3 0.00 0.97 0.00 73 1010.7
20260507014102 14 246 4.8 11.3 0.00 0.97 0.00 72 1010.6
20260507014002 14 232 4.8 11.3 0.00 0.97 0.00 72 1010.6
20260507013902 14 239 3.2 11.3 0.00 0.97 0.00 72 1010.6
20260507013802 14 239 8.0 12.9 0.00 0.97 0.00 72 1010.6
20260507013559 14 248 8.0 14.5 0.00 0.97 0.00 71 1010.5
20260507013520 14 234 6.4 14.5 0.00 0.97 0.00 71 1010.5
20260507013359 15 242 6.4 14.5 0.00 0.97 0.00 71 1010.4
20260507013300 15 250 3.2 14.5 0.00 0.97 0.00 71 1010.5
20260507013203 15 239 8.0 14.5 0.00 0.97 0.00 71 1010.4
20260507013059 15 239 6.4 14.5 0.00 0.97 0.00 71 1010.4
20260507013000 15 242 8.0 16.1 0.00 0.97 0.00 70 1010.4
20260507012902 15 226 8.0 17.7 0.00 0.97 0.00 71 1010.4
20260507012759 15 239 11.3 17.7 0.00 0.97 0.00 71 1010.4
20260507012659 15 240 11.3 19.3 0.00 0.97 0.00 71 1010.4
20260507012602 15 229 12.9 20.9 0.00 0.97 0.00 71 1010.4
20260507012501 15 233 9.7 20.9 0.00 0.97 0.00 71 1010.5
20260507012400 15 240 9.7 20.9 0.00 0.97 0.00 70 1010.5
20260507012305 15 243 9.7 20.9 0.00 0.97 0.00 70 1010.5
20260507012200 15 240 11.3 20.9 0.00 0.97 0.00 70 1010.4
20260507012059 15 236 11.3 20.9 0.00 0.97 0.00 70 1010.4
20260507012004 15 236 12.9 20.9 0.00 0.97 0.00 70 1010.4
20260507011900 15 232 16.1 20.9 0.00 0.97 0.00 70 1010.4
20260507011801 15 234 17.7 20.9 0.00 0.97 0.00 71 1010.4
20260507011702 15 218 17.7 20.9 0.00 0.97 0.00 71 1010.3
20260507011601 14 229 17.7 19.3 0.00 0.97 0.00 71 1010.4
20260507011500 14 221 19.3 19.3 0.00 0.97 0.00 71 1010.4
20260507011403 14 227 16.1 19.3 0.00 0.97 0.00 72 1010.4
20260507011259 14 233 12.9 14.5 0.00 0.97 0.00 72 1010.4
20260507011200 14 240 11.3 14.5 0.00 0.97 0.00 71 1010.4
20260507011103 14 252 11.3 14.5 0.00 0.97 0.00 72 1010.5
20260507011002 14 230 8.0 14.5 0.00 0.97 0.00 72 1010.4
20260507010859 14 247 6.4 14.5 0.00 0.97 0.00 72 1010.5
20260507010802 14 240 12.9 14.5 0.00 0.97 0.00 72 1010.4
20260507010700 14 220 9.7 12.9 0.00 0.97 0.00 72 1010.5
20260507010601 14 230 11.3 11.3 0.00 0.97 0.00 72 1010.5
20260507010503 14 234 8.0 11.3 0.00 0.97 0.00 72 1010.5
20260507010359 14 240 6.4 12.9 0.00 0.97 0.00 72 1010.5
20260507010259 14 236 11.3 12.9 0.00 0.97 0.00 73 1010.5
20260507010203 14 221 9.7 12.9 0.00 0.97 0.00 72 1010.4
20260507010100 14 225 6.4 12.9 0.00 0.97 0.00 72 1010.4
20260507010003 14 238 4.8 12.9 0.00 0.97 0.00 72 1010.5
20260507005902 14 263 8.0 12.9 0.00 1.07 0.00 72 1010.5
20260507005759 14 232 11.3 12.9 0.00 1.07 0.00 72 1010.5
20260507005659 15 237 8.0 12.9 0.00 1.07 0.00 72 1010.5
20260507005602 15 218 6.4 12.9 0.00 1.07 0.00 72 1010.6
20260507005500 15 230 11.3 12.9 0.00 1.07 0.00 72 1010.6
20260507005400 15 217 12.9 12.9 0.00 1.07 0.00 72 1010.6
20260507005305 15 232 12.9 12.9 0.00 1.07 0.00 72 1010.6
20260507005159 15 242 9.7 14.5 0.00 1.07 0.00 72 1010.6
20260507005059 15 205 6.4 14.5 0.00 1.07 0.00 71 1010.6
20260507005004 15 240 4.8 14.5 0.00 1.07 0.00 71 1010.6
20260507004859 15 221 11.3 14.5 0.00 1.07 0.00 71 1010.7
20260507004801 15 257 9.7 14.5 0.00 1.07 0.00 71 1010.6
20260507004704 15 240 8.0 14.5 0.00 1.07 0.00 71 1010.6
20260507004510 15 237 9.7 14.5 0.00 1.07 0.00 70 1010.6
20260507004404 15 241 8.0 14.5 0.00 1.07 0.00 70 1010.6
20260507004259 15 228 6.4 14.5 0.00 1.07 0.00 70 1010.6
20260507004102 15 244 6.4 14.5 0.00 1.07 0.00 71 1010.7
20260507004001 15 250 11.3 14.5 0.00 1.07 0.00 71 1010.7
20260507003859 15 234 9.7 14.5 0.00 1.07 0.00 71 1010.7
20260507003803 15 227 9.7 14.5 0.00 1.07 0.00 70 1010.7
20260507003700 15 234 11.3 14.5 0.00 1.07 0.00 71 1010.7
20260507003600 15 227 8.0 11.3 0.00 1.07 0.00 71 1010.7
20260507003504 15 250 8.0 11.3 0.00 1.07 0.00 70 1010.7
20260507003359 15 235 9.7 11.3 0.00 1.07 0.00 71 1010.7
20260507003259 15 226 6.4 11.3 0.00 1.07 0.00 70 1010.7
20260507003202 15 220 8.0 11.3 0.00 1.07 0.00 71 1010.7
20260507003101 15 213 8.0 11.3 0.00 1.07 0.00 71 1010.7
20260507003001 15 232 9.7 11.3 0.00 1.07 0.00 71 1010.7
20260507002800 15 235 6.4 11.3 0.00 1.07 0.00 71 1010.6
20260507002700 15 251 6.4 9.7 0.00 1.07 0.00 71 1010.6
20260507002602 15 232 3.2 9.7 0.00 1.07 0.00 70 1010.6
20260507002500 15 242 6.4 9.7 0.00 1.07 0.00 70 1010.6
20260507002359 15 255 4.8 9.7 0.00 1.07 0.00 70 1010.6
20260507002306 15 281 3.2 9.7 0.00 1.07 0.00 69 1010.6
20260507002159 15 275 4.8 9.7 0.00 1.07 0.00 69 1010.6
20260507002059 15 271 6.4 9.7 0.00 1.07 0.00 69 1010.6
20260507002004 15 290 6.4 9.7 0.00 1.07 0.00 69 1010.6
20260507001800 15 254 6.4 12.9 0.00 1.07 0.00 69 1010.5
20260507001704 15 254 4.8 17.7 0.00 1.07 0.00 68 1010.5
20260507001600 15 254 4.8 17.7 0.00 1.07 0.00 68 1010.5
20260507001501 15 254 4.8 19.3 0.00 1.07 0.00 68 1010.5
20260507001403 15 254 3.2 19.3 0.00 1.07 0.00 67 1010.5
20260507001159 15 238 4.8 19.3 0.00 1.07 0.00 68 1010.5
20260507001103 15 243 8.0 19.3 0.00 1.07 0.00 67 1010.6
20260507001001 15 231 3.2 19.3 0.00 1.07 0.00 67 1010.6
20260507000859 15 209 11.3 19.3 0.00 1.07 0.00 67 1010.5
20260507000802 15 225 8.0 19.3 0.00 1.07 0.00 67 1010.5
20260507000659 15 196 16.1 24.1 0.00 1.07 0.00 67 1010.5
20260507000600 15 190 16.1 24.1 0.00 1.07 0.00 67 1010.5
20260507000503 15 201 11.3 24.1 0.00 1.07 0.00 67 1010.5
20260507000359 15 193 6.4 24.1 0.00 1.07 0.00 67 1010.5
20260507000259 15 182 12.9 24.1 0.00 1.07 0.00 67 1010.5
20260507000204 15 159 11.3 24.1 0.00 1.07 0.00 67 1010.5
20260507000112 15 193 11.3 24.1 0.00 1.07 0.00 67 1010.5
20260507000003 15 205 8.0 24.1 0.00 1.07 0.00 67 1010.5
20260506235902 15 173 12.9 24.1 0.00 1.07 0.00 67 1010.5
20260506235800 15 198 19.3 24.1 0.00 1.07 0.00 67 1010.5
20260506235700 15 186 9.7 17.7 0.00 1.07 0.00 68 1010.5
20260506235602 15 188 11.3 17.7 0.00 1.07 0.00 68 1010.6
20260506235500 15 192 6.4 17.7 0.00 1.07 0.00 67 1010.6
20260506235400 15 201 11.3 17.7 0.00 1.07 0.00 67 1010.5
20260506235159 15 194 14.5 17.7 0.00 1.07 0.00 67 1010.5
20260506235059 15 221 16.1 19.3 0.00 1.07 0.00 68 1010.5
20260506235005 15 194 12.9 20.9 0.00 1.07 0.00 68 1010.5
20260506234859 15 185 4.8 20.9 0.00 1.07 0.00 67 1010.6
20260506234759 15 178 14.5 20.9 0.00 1.07 0.00 67 1010.6
20260506234702 15 188 11.3 20.9 0.00 1.07 0.00 67 1010.6
20260506234559 15 186 8.0 20.9 0.00 1.07 0.00 67 1010.6
20260506234403 15 159 4.8 20.9 0.00 1.07 0.00 67 1010.6
20260506234159 15 191 14.5 20.9 0.00 1.07 0.00 68 1010.6
20260506234001 15 202 12.9 17.7 0.00 1.07 0.00 68 1010.7
20260506233859 15 194 8.0 17.7 0.00 1.07 0.00 68 1010.7
20260506233802 15 204 11.3 17.7 0.00 1.07 0.00 68 1010.6
20260506233503 15 220 11.3 17.7 0.00 1.07 0.00 68 1010.7
20260506233300 15 202 6.4 17.7 0.00 1.07 0.00 69 1010.7
20260506233202 15 262 6.4 17.7 0.00 1.07 0.00 69 1010.7
20260506233100 15 248 6.4 17.7 0.00 1.07 0.00 69 1010.7
20260506233004 15 269 6.4 19.3 0.00 1.07 0.00 69 1010.7
20260506232904 15 267 8.0 19.3 0.00 1.07 0.00 69 1010.7
20260506232800 15 247 3.2 19.3 0.00 1.07 0.00 69 1010.8
20260506232701 15 256 3.2 19.3 0.00 1.07 0.00 70 1010.8
20260506232500 15 232 11.3 19.3 0.00 1.07 0.00 70 1010.7
20260506232359 15 250 6.4 20.9 0.00 1.07 0.00 70 1010.7
20260506232306 15 216 6.4 20.9 0.00 1.07 0.00 70 1010.7
20260506232159 16 212 8.0 20.9 0.00 1.07 0.00 70 1010.7
20260506232059 16 228 9.7 20.9 0.00 1.07 0.00 70 1010.7
20260506232005 16 227 17.7 20.9 0.00 1.07 0.00 70 1010.7
20260506231859 16 218 11.3 25.7 0.00 1.07 0.00 70 1010.7
20260506231800 16 240 12.9 25.7 0.00 1.07 0.00 69 1010.6
20260506231702 16 202 9.7 29.0 0.00 1.07 0.00 69 1010.6
20260506231502 16 209 14.5 29.0 0.00 1.07 0.00 69 1010.6
20260506231407 16 206 11.3 33.8 0.00 1.07 0.00 69 1010.6
20260506231200 16 191 16.1 33.8 0.00 1.07 0.00 69 1010.5
20260506231103 16 207 11.3 33.8 0.00 1.07 0.00 69 1010.5
20260506231000 16 197 16.1 33.8 0.00 1.07 0.00 69 1010.6
20260506230900 16 190 16.1 33.8 0.00 1.07 0.00 69 1010.6
20260506230802 16 200 16.1 33.8 0.00 1.07 0.00 70 1010.6
20260506230601 16 211 17.7 33.8 0.00 1.07 0.00 71 1010.7
20260506230506 16 205 17.7 33.8 0.00 1.07 0.00 71 1010.7
20260506230359 16 182 24.1 32.2 0.00 1.07 0.00 71 1010.6
20260506230259 16 192 12.9 32.2 0.00 1.07 0.00 72 1010.7
20260506230003 16 187 14.5 37.0 0.00 1.07 0.00 72 1010.6
20260506225902 16 200 12.9 37.0 0.00 1.09 0.00 72 1010.6
20260506225759 16 227 17.7 37.0 0.00 1.09 0.00 72 1010.7
20260506225602 16 217 29.0 37.0 0.00 1.09 0.00 72 1010.6
20260506225500 16 230 20.9 37.0 0.00 1.09 0.00 72 1010.7
20260506225400 16 224 24.1 37.0 0.00 1.09 0.00 72 1010.6
20260506225159 16 216 29.0 37.0 0.00 1.09 0.00 72 1010.5
20260506225100 16 225 33.8 37.0 0.00 1.09 0.00 72 1010.5
20260506225004 16 232 20.9 37.0 0.00 1.09 0.00 72 1010.5
20260506224900 16 217 32.2 37.0 0.00 1.09 0.00 72 1010.5
20260506224705 16 229 24.1 38.6 0.00 1.09 0.00 72 1010.5
20260506224600 16 198 32.2 38.6 0.00 1.09 0.00 72 1010.5
20260506224500 16 217 33.8 38.6 0.00 1.09 0.00 73 1010.5
20260506224402 16 187 16.1 38.6 0.00 1.09 0.00 73 1010.5
20260506224200 16 196 20.9 38.6 0.00 1.09 0.00 72 1010.5
20260506224102 16 218 29.0 38.6 0.00 1.09 0.00 72 1010.5
20260506223659 16 217 27.4 35.4 0.00 1.09 0.00 72 1010.4
20260506223600 16 225 27.4 35.4 0.00 1.09 0.00 73 1010.4
20260506223504 16 227 25.7 35.4 0.00 1.09 0.00 73 1010.4
20260506223401 16 210 19.3 35.4 0.00 1.09 0.00 73 1010.5
20260506223306 16 211 12.9 35.4 0.00 1.09 0.00 73 1010.5
20260506223202 16 226 17.7 35.4 0.00 1.09 0.00 73 1010.4
20260506223059 16 212 30.6 35.4 0.00 1.09 0.00 73 1010.4
20260506223002 16 190 22.5 35.4 0.00 1.09 0.00 73 1010.4
20260506222906 16 197 19.3 35.4 0.00 1.09 0.00 73 1010.4
20260506222800 16 204 16.1 33.8 0.00 1.09 0.00 73 1010.4
20260506222605 16 192 11.3 33.8 0.00 1.09 0.00 73 1010.5
20260506222500 16 216 17.7 33.8 0.03 1.09 0.00 73 1010.5
20260506222400 16 193 17.7 33.8 0.03 1.09 0.00 73 1010.5
20260506222305 16 215 14.5 33.8 0.03 1.09 0.00 72 1010.5
20260506222203 16 202 19.3 33.8 0.03 1.09 0.00 72 1010.5
20260506222059 16 201 19.3 33.8 0.03 1.09 0.00 72 1010.5
20260506222005 16 213 25.7 33.8 0.03 1.09 0.00 72 1010.5
20260506221900 16 206 20.9 33.8 0.03 1.09 0.00 72 1010.6
20260506221759 16 221 19.3 38.6 0.03 1.09 0.00 72 1010.5
20260506221703 16 212 17.7 38.6 0.03 1.09 0.00 72 1010.5
20260506221600 16 207 19.3 38.6 0.03 1.09 0.00 72 1010.6
20260506221501 16 207 22.5 38.6 0.03 1.09 0.00 71 1010.4
20260506221402 16 194 32.2 38.6 0.03 1.09 0.00 71 1010.4
20260506221300 16 189 20.9 38.6 0.03 1.09 0.00 71 1010.5
20260506221103 16 194 20.9 38.6 0.03 1.09 0.00 70 1010.4
20260506220859 16 201 27.4 38.6 0.03 1.09 0.00 70 1010.4
20260506220559 16 207 27.4 38.6 0.03 1.09 0.00 70 1010.3
20260506220359 16 223 33.8 40.2 0.03 1.09 0.00 70 1010.3
20260506220259 16 218 29.0 40.2 0.03 1.09 0.00 70 1010.3
20260506220204 16 185 32.2 40.2 0.03 1.09 0.00 70 1010.3
20260506220118 16 221 35.4 40.2 0.03 1.09 0.00 70 1010.4
20260506220006 16 202 24.1 40.2 0.03 1.09 0.00 70 1010.4
20260506215803 16 217 29.0 40.2 0.03 1.09 1.09 69 1010.4
20260506215700 16 215 32.2 40.2 0.03 1.09 1.09 69 1010.4
20260506215603 16 219 33.8 40.2 0.03 1.09 1.09 70 1010.4
20260506215400 16 180 22.5 35.4 0.03 1.09 1.09 70 1010.4
20260506215305 16 213 24.1 35.4 0.03 1.09 1.09 70 1010.4
20260506215202 16 222 22.5 35.4 0.03 1.09 1.09 70 1010.4
20260506215004 15 218 25.7 33.8 0.03 1.09 1.09 71 1010.4
20260506214902 15 208 16.1 33.8 0.03 1.09 1.09 71 1010.4
20260506214704 15 208 19.3 33.8 0.03 1.09 1.09 72 1010.4
20260506214602 15 192 27.4 33.8 0.03 1.09 1.09 72 1010.5
20260506214501 15 220 19.3 33.8 0.03 1.09 1.09 73 1010.5
20260506214403 15 213 27.4 33.8 0.03 1.09 1.09 73 1010.5
20260506214201 15 205 14.5 35.4 0.03 1.09 1.09 75 1010.5
20260506214103 15 181 22.5 35.4 0.03 1.09 1.09 75 1010.5
20260506214007 15 221 24.1 35.4 0.03 1.09 1.09 75 1010.5
20260506213901 15 213 22.5 35.4 0.03 1.09 1.09 76 1010.5
20260506213803 15 223 14.5 35.4 0.03 1.09 1.09 76 1010.5
20260506213703 15 205 16.1 35.4 0.03 1.09 1.09 76 1010.5
20260506213602 15 215 22.5 35.4 0.03 1.09 1.09 76 1010.4
20260506213505 15 212 29.0 30.6 0.03 1.09 1.09 76 1010.5
20260506213402 15 200 22.5 30.6 0.03 1.09 1.09 76 1010.5
20260506213301 15 213 19.3 30.6 0.03 1.09 1.09 77 1010.5
20260506213219 15 214 16.1 30.6 0.03 1.09 1.09 76 1010.5
20260506213103 15 214 16.1 30.6 0.03 1.09 1.09 76 1010.4
20260506213002 15 221 32.2 32.2 0.03 1.09 1.09 76 1010.4
20260506212903 15 212 14.5 35.4 0.03 1.09 1.09 76 1010.4
20260506212804 15 225 17.7 35.4 0.03 1.09 1.09 76 1010.4
20260506212701 15 220 19.3 35.4 0.03 1.09 1.09 75 1010.4
20260506212608 15 214 24.1 35.4 0.03 1.09 1.09 75 1010.4
20260506212504 15 218 22.5 35.4 0.00 1.07 1.07 75 1010.4
20260506212400 16 209 29.0 35.4 0.00 1.07 1.07 75 1010.5
20260506212307 16 208 12.9 35.4 0.00 1.07 1.07 75 1010.5
20260506212107 16 217 24.1 35.4 0.00 1.07 1.07 73 1010.3
20260506212005 16 221 22.5 35.4 0.00 1.07 1.07 73 1010.3
20260506211902 16 209 22.5 33.8 0.00 1.07 1.07 74 1010.4
20260506211800 16 221 14.5 37.0 0.00 1.07 1.07 73 1010.4
20260506211708 16 200 17.7 37.0 0.00 1.07 1.07 73 1010.4
20260506211603 16 183 27.4 37.0 0.00 1.07 1.07 73 1010.4
20260506211501 16 188 22.5 37.0 0.00 1.07 1.07 72 1010.4
20260506211403 16 238 20.9 37.0 0.00 1.07 1.07 72 1010.4
20260506211304 16 203 25.7 37.0 0.00 1.07 1.07 71 1010.4
20260506211200 16 194 27.4 37.0 0.00 1.07 1.07 71 1010.4
20260506211104 16 200 20.9 37.0 0.00 1.07 1.07 71 1010.4
20260506211003 16 211 25.7 37.0 0.00 1.07 1.07 71 1010.3
20260506210901 16 209 33.8 37.0 0.00 1.07 1.07 70 1010.3
20260506210703 16 203 19.3 37.0 0.00 1.07 1.07 70 1010.3
20260506210601 16 184 29.0 37.0 0.00 1.07 1.07 70 1010.3
20260506210504 16 187 20.9 37.0 0.00 1.07 1.07 70 1010.3
20260506210300 16 200 32.2 37.0 0.00 1.07 1.07 70 1010.2
20260506205904 16 184 29.0 32.2 0.00 1.07 1.07 72 1010.2
20260506205802 16 203 20.9 27.4 0.00 1.07 1.07 72 1010.3
20260506205701 16 174 20.9 29.0 0.00 1.07 1.07 73 1010.3
20260506205603 16 199 17.7 29.0 0.00 1.07 1.07 73 1010.3
20260506205503 16 204 20.9 27.4 0.00 1.07 1.07 74 1010.3
20260506205100 16 207 19.3 27.4 0.00 1.07 1.07 74 1010.3
20260506204903 16 192 9.7 27.4 0.00 1.07 1.07 74 1010.2
20260506204800 16 208 12.9 27.4 0.00 1.07 1.07 75 1010.3
20260506204703 16 178 16.1 22.5 0.00 1.07 1.07 75 1010.3
20260506204603 16 186 17.7 24.1 0.00 1.07 1.07 76 1010.2
20260506204500 16 180 9.7 24.1 0.00 1.07 1.07 75 1010.3
20260506204302 16 171 6.4 24.1 0.00 1.07 1.07 76 1010.3
20260506204200 16 185 14.5 24.1 0.00 1.07 1.07 76 1010.3
20260506204103 16 199 11.3 27.4 0.00 1.07 1.07 77 1010.3
20260506203900 16 188 20.9 27.4 0.00 1.07 1.07 76 1010.3
20260506203803 16 174 11.3 27.4 0.00 1.07 1.07 76 1010.4
20260506203703 16 166 14.5 27.4 0.00 1.07 1.07 77 1010.4
20260506203503 16 171 22.5 27.4 0.00 1.07 1.07 77 1010.3
20260506203403 16 165 11.3 27.4 0.00 1.07 1.07 77 1010.3
20260506203301 16 191 16.1 27.4 0.00 1.07 1.07 77 1010.3
20260506203206 16 188 24.1 27.4 0.00 1.07 1.07 78 1010.3
20260506203105 16 168 8.0 16.1 0.00 1.07 1.07 78 1010.3
20260506203003 16 170 6.4 14.5 0.00 1.07 1.07 79 1010.3
20260506202904 16 176 11.3 14.5 0.00 1.07 1.07 79 1010.3
20260506202803 16 174 12.9 16.1 0.00 1.07 1.07 79 1010.3
20260506202702 16 167 4.8 14.5 0.00 1.07 1.07 80 1010.3
20260506202608 15 162 4.8 12.9 0.00 1.07 1.07 80 1010.3
20260506202506 15 180 8.0 11.3 0.00 1.07 1.07 80 1010.3
20260506202402 15 204 6.4 11.3 0.00 1.07 1.07 80 1010.3
20260506202317 15 175 6.4 11.3 0.00 1.07 1.07 80 1010.3
20260506202205 15 178 9.7 11.3 0.00 1.07 1.07 80 1010.4
20260506201906 15 171 4.8 11.3 0.00 1.07 1.07 81 1010.4
20260506201802 15 164 6.4 11.3 0.00 1.07 1.07 81 1010.3
20260506201704 15 173 9.7 11.3 0.00 1.07 1.07 81 1010.3
20260506201604 15 140 6.4 11.3 0.00 1.07 1.07 81 1010.3
20260506201505 15 161 3.2 8.0 0.00 1.07 1.07 80 1010.3
20260506201201 15 161 4.8 8.0 0.00 1.07 1.07 80 1010.1
20260506201104 15 161 3.2 8.0 0.00 1.07 1.07 81 1010.1
20260506201004 15 142 3.2 8.0 0.00 1.07 1.07 81 1010.2
20260506200803 15 190 3.2 11.3 0.00 1.07 1.07 81 1010.2
20260506200706 15 169 6.4 11.3 0.00 1.07 1.07 81 1010.2
20260506200602 15 167 3.2 11.3 0.00 1.07 1.07 81 1010.2
20260506200506 15 199 4.8 11.3 0.00 1.07 1.07 81 1010.2
20260506200302 15 187 6.4 11.3 0.00 1.07 1.07 81 1010.2
20260506200209 15 180 3.2 11.3 0.00 1.07 1.07 81 1010.2
20260506200131 15 178 4.8 11.3 0.00 1.07 1.07 82 1010.1
20260506200008 15 159 4.8 11.3 0.00 1.07 1.07 82 1010.1
20260506195907 15 200 4.8 9.7 0.00 1.07 1.07 82 1010.1
20260506195801 15 177 3.2 9.7 0.00 1.07 1.07 82 1010.1
20260506195704 15 177 3.2 9.7 0.00 1.07 1.07 82 1010.1
20260506195605 15 177 3.2 9.7 0.00 1.07 1.07 82 1010.1
20260506195500 15 192 3.2 14.5 0.00 1.07 1.07 82 1010.1
20260506195309 15 196 4.8 14.5 0.00 1.07 1.07 82 1010.1
20260506194804 15 178 3.2 14.5 0.00 1.07 1.07 82 1010.0
20260506194705 15 167 4.8 14.5 0.00 1.07 1.07 82 1009.9
20260506194603 15 192 9.7 14.5 0.00 1.07 1.07 82 1010.0
20260506194502 15 159 9.7 12.9 0.00 1.07 1.07 82 1009.9
20260506194425 15 178 8.0 12.9 0.00 1.07 1.07 82 1009.9
20260506194303 15 148 6.4 12.9 0.00 1.07 1.07 82 1009.9
20260506194202 15 169 6.4 12.9 0.00 1.07 1.07 82 1009.9
20260506194101 15 182 6.4 11.3 0.00 1.07 1.07 82 1009.9
20260506194031 15 173 6.4 11.3 0.00 1.07 1.07 82 1009.9
20260506193905 15 189 6.4 12.9 0.00 1.07 1.07 83 1009.8
20260506193605 15 175 8.0 12.9 0.00 1.07 1.07 83 1009.8
20260506193505 15 177 4.8 12.9 0.00 1.07 1.07 83 1009.8
20260506193405 15 157 8.0 12.9 0.00 1.07 1.07 83 1009.8
20260506193302 15 160 3.2 12.9 0.00 1.07 1.07 83 1009.7
20260506193202 15 167 6.4 12.9 0.00 1.07 1.07 83 1009.7
20260506193003 15 177 9.7 14.5 0.00 1.07 1.07 83 1009.6
20260506192823 15 193 8.0 14.5 0.00 1.07 1.07 83 1009.6
20260506192702 15 179 6.4 14.5 0.00 1.07 1.07 83 1009.6
20260506192606 15 182 9.7 16.1 0.00 1.07 1.07 83 1009.6
20260506192518 15 185 6.4 16.1 0.00 1.07 1.07 83 1009.6
20260506192401 15 167 3.2 16.1 0.00 1.07 1.07 83 1009.6
20260506192305 15 192 4.8 16.1 0.00 1.07 1.07 83 1009.6
20260506192104 15 175 9.7 16.1 0.00 1.07 1.07 84 1009.6
20260506191912 15 164 4.8 17.7 0.00 1.07 1.07 84 1009.6
20260506191802 15 174 12.9 17.7 0.00 1.07 1.07 84 1009.5
20260506191703 15 161 6.4 17.7 0.00 1.07 1.07 84 1009.5
20260506191502 15 171 6.4 20.9 0.00 1.07 1.07 84 1009.5
20260506191406 15 153 8.0 20.9 0.00 1.07 1.07 84 1009.5
20260506191305 15 179 6.4 20.9 0.00 1.07 1.07 84 1009.5
20260506191101 15 191 14.5 20.9 0.00 1.07 1.07 84 1009.5
20260506191026 15 189 9.7 20.9 0.00 1.07 1.07 84 1009.5
20260506190921 15 184 12.9 20.9 0.00 1.07 1.07 84 1009.5
20260506190804 15 182 9.7 20.9 0.00 1.07 1.07 84 1009.5
20260506190602 15 163 11.3 20.9 0.00 1.07 1.07 84 1009.5
20260506190502 15 178 8.0 20.9 0.00 1.07 1.07 84 1009.5
20260506190405 15 159 8.0 20.9 0.00 1.07 1.07 84 1009.4
20260506190302 15 184 20.9 20.9 0.00 1.07 1.07 84 1009.4
20260506190205 15 184 20.9 20.9 0.00 1.07 1.07 84 1009.4
20260506190107 15 186 14.5 19.3 0.00 1.07 1.07 84 1009.4
20260506190005 15 180 4.8 19.3 0.00 1.07 1.07 84 1009.3
20260506185908 15 175 12.9 19.3 0.00 1.07 1.07 84 1009.4
20260506185723 15 187 6.4 16.1 0.00 1.07 1.07 84 1009.3
20260506185615 15 170 12.9 16.1 0.00 1.07 1.07 84 1009.3
20260506185403 15 177 6.4 14.5 0.00 1.07 1.07 83 1009.2
20260506185302 15 155 8.0 14.5 0.00 1.07 1.07 83 1009.2
20260506185203 15 175 6.4 11.3 0.00 1.07 1.07 83 1009.1
20260506185114 15 186 6.4 16.1 0.00 1.07 1.07 83 1009.1
20260506185003 15 178 9.7 16.1 0.00 1.07 1.07 83 1009.1
20260506184905 15 180 9.7 16.1 0.00 1.07 1.07 83 1009.1
20260506184804 15 180 4.8 16.1 0.00 1.07 1.07 83 1009.0
20260506184704 15 150 9.7 16.1 0.00 1.07 1.07 84 1009.0
20260506184608 15 165 6.4 16.1 0.00 1.07 1.07 83 1008.9
20260506184403 15 171 6.4 16.1 0.00 1.07 1.07 83 1009.0
20260506184307 15 157 4.8 17.7 0.00 1.07 1.07 83 1009.0
20260506184202 15 155 8.0 17.7 0.00 1.07 1.07 83 1009.0
20260506184102 15 152 16.1 17.7 0.00 1.07 1.07 83 1009.0
20260506183907 15 171 8.0 17.7 0.00 1.07 1.07 83 1009.0
20260506183801 15 163 3.2 17.7 0.00 1.07 1.07 83 1008.9
20260506183704 15 176 8.0 17.7 0.00 1.07 1.07 83 1008.9
20260506183606 15 176 12.9 17.7 0.00 1.07 1.07 83 1008.9
20260506183503 15 184 6.4 17.7 0.00 1.07 1.07 83 1008.9
20260506183401 15 186 8.0 17.7 0.00 1.07 1.07 83 1008.9
20260506183201 15 173 14.5 17.7 0.00 1.07 1.07 83 1008.9
20260506183101 15 194 9.7 17.7 0.00 1.07 1.07 83 1008.9
20260506183032 15 173 6.4 17.7 0.00 1.07 1.07 83 1008.9
20260506182801 15 185 3.2 16.1 0.00 1.07 1.07 83 1008.9
20260506182706 15 149 8.0 20.9 0.00 1.07 1.07 83 1008.9
20260506182502 15 171 11.3 20.9 0.00 1.07 1.07 83 1008.8
20260506182405 15 175 6.4 20.9 0.00 1.07 1.07 83 1008.8
20260506182307 15 162 4.8 20.9 0.03 1.07 1.07 83 1008.9
20260506182202 15 159 12.9 20.9 0.03 1.07 1.07 83 1008.9
20260506182106 15 158 6.4 20.9 0.03 1.07 1.07 83 1008.9